| time (UTC) | temp C | wind direction | speed KPH | gust KPH | rain 1hr cm | rain 24hr cm | rain mn cm | humidity % | barometer mb |
| 20260507151628 | 20 | 13 | 8.0 | 16.1 | 0.00 | 0.79 | 0.00 | 56 | 1010.9 |
| 20260507151618 | 20 | 286 | 3.2 | 16.1 | 0.00 | 0.79 | 0.00 | 57 | 1011.2 |
| 20260507151523 | 20 | 19 | 9.7 | 16.1 | 0.00 | 0.79 | 0.00 | 58 | 1011.0 |
| 20260507151454 | 20 | 129 | 4.8 | 11.3 | 0.00 | 0.79 | 0.00 | 56 | 1011.2 |
| 20260507151424 | 20 | 19 | 9.7 | 16.1 | 0.00 | 0.79 | 0.00 | 56 | 1010.9 |
| 20260507151324 | 20 | 19 | 9.7 | 16.1 | 0.00 | 0.79 | 0.00 | 58 | 1011.0 |
| 20260507151251 | 20 | 146 | 6.4 | 14.5 | 0.00 | 0.79 | 0.00 | 57 | 1011.2 |
| 20260507151221 | 20 | 49 | 6.4 | 16.1 | 0.00 | 0.79 | 0.00 | 59 | 1011.0 |
| 20260507151152 | 20 | 123 | 3.2 | 14.5 | 0.00 | 0.79 | 0.00 | 57 | 1011.2 |
| 20260507151121 | 20 | 67 | 4.8 | 11.3 | 0.00 | 0.79 | 0.00 | 59 | 1010.9 |
| 20260507151019 | 20 | 47 | 3.2 | 11.3 | 0.00 | 0.79 | 0.00 | 56 | 1011.0 |
| 20260507150929 | 20 | 38 | 3.2 | 14.5 | 0.00 | 0.79 | 0.00 | 57 | 1011.3 |
| 20260507150917 | 20 | 51 | 3.2 | 11.3 | 0.00 | 0.79 | 0.00 | 55 | 1010.9 |
| 20260507150818 | 20 | 51 | 3.2 | 11.3 | 0.00 | 0.79 | 0.00 | 54 | 1011.0 |
| 20260507150714 | 20 | 103 | 6.4 | 11.3 | 0.00 | 0.79 | 0.00 | 54 | 1011.0 |
| 20260507150614 | 20 | 119 | 4.8 | 11.3 | 0.00 | 0.79 | 0.00 | 56 | 1011.0 |
| 20260507150520 | 20 | 74 | 6.4 | 11.3 | 0.00 | 0.79 | 0.00 | 57 | 1011.0 |
| 20260507150436 | 20 | 76 | 6.4 | 11.3 | 0.00 | 0.79 | 0.00 | 56 | 1011.0 |
| 20260507150357 | 20 | 72 | 6.4 | 11.3 | 0.00 | 0.79 | 0.00 | 61 | 1010.9 |
| 20260507150317 | 20 | 9 | 4.8 | 12.9 | 0.00 | 0.79 | 0.00 | 58 | 1011.0 |
| 20260507150233 | 20 | 74 | 6.4 | 12.9 | 0.00 | 0.79 | 0.00 | 61 | 1011.0 |
| 20260507150150 | 20 | 99 | 6.4 | 12.9 | 0.00 | 0.79 | 0.00 | 59 | 1011.0 |
| 20260507145744 | 19 | 97 | 6.4 | 17.7 | 0.00 | 0.79 | 0.00 | 59 | 1011.0 |
| 20260507145459 | 19 | 71 | 8.0 | 17.7 | 0.00 | 0.79 | 0.00 | 58 | 1011.0 |
| 20260507145436 | 20 | 178 | 8.0 | 14.5 | 0.00 | 0.79 | 0.00 | 52 | 1011.5 |
| 20260507145359 | 19 | 78 | 9.7 | 19.3 | 0.00 | 0.79 | 0.00 | 58 | 1011.0 |
| 20260507145257 | 20 | 57 | 8.0 | 19.3 | 0.00 | 0.79 | 0.00 | 59 | 1011.0 |
| 20260507145200 | 20 | 77 | 8.0 | 19.3 | 0.00 | 0.79 | 0.00 | 62 | 1011.0 |
| 20260507145117 | 20 | 87 | 11.3 | 19.3 | 0.00 | 0.79 | 0.00 | 57 | 1011.0 |
| 20260507145030 | 20 | 34 | 9.7 | 19.3 | 0.00 | 0.79 | 0.00 | 57 | 1011.0 |
| 20260507144950 | 20 | 80 | 9.7 | 19.3 | 0.00 | 0.79 | 0.00 | 58 | 1011.1 |
| 20260507144908 | 20 | 74 | 11.3 | 19.3 | 0.00 | 0.79 | 0.00 | 55 | 1011.1 |
| 20260507144826 | 21 | 31 | 11.3 | 19.3 | 0.00 | 0.79 | 0.00 | 57 | 1011.1 |
| 20260507144742 | 21 | 63 | 8.0 | 19.3 | 0.00 | 0.79 | 0.00 | 58 | 1011.2 |
| 20260507144516 | 20 | 291 | 4.8 | 16.1 | 0.00 | 0.79 | 0.00 | 53 | 1011.1 |
| 20260507144109 | 20 | 291 | 6.4 | 16.1 | 0.00 | 0.79 | 0.00 | 53 | 1011.1 |
| 20260507144024 | 20 | 309 | 9.7 | 16.1 | 0.00 | 0.79 | 0.00 | 54 | 1011.1 |
| 20260507143756 | 20 | 309 | 12.9 | 16.1 | 0.00 | 0.79 | 0.00 | 57 | 1011.1 |
| 20260507143714 | 20 | 317 | 11.3 | 16.1 | 0.00 | 0.79 | 0.00 | 57 | 1011.1 |
| 20260507143631 | 20 | 297 | 8.0 | 16.1 | 0.00 | 0.79 | 0.00 | 58 | 1011.1 |
| 20260507143357 | 20 | 44 | 3.2 | 11.3 | 0.00 | 0.79 | 0.00 | 53 | 1011.1 |
| 20260507143317 | 20 | 93 | 4.8 | 11.3 | 0.00 | 0.79 | 0.00 | 54 | 1011.2 |
| 20260507143041 | 20 | 108 | 4.8 | 11.3 | 0.00 | 0.79 | 0.00 | 56 | 1011.2 |
| 20260507142955 | 20 | 113 | 3.2 | 11.3 | 0.00 | 0.79 | 0.00 | 57 | 1011.2 |
| 20260507142914 | 20 | 93 | 1.6 | 14.5 | 0.00 | 0.79 | 0.00 | 54 | 1011.2 |
| 20260507142835 | 20 | 265 | 3.2 | 14.5 | 0.00 | 0.79 | 0.00 | 55 | 1011.2 |
| 20260507142609 | 20 | 93 | 4.8 | 14.5 | 0.00 | 0.79 | 0.00 | 55 | 1011.2 |
| 20260507142402 | 20 | 51 | 4.8 | 14.5 | 0.00 | 0.79 | 0.00 | 53 | 1011.6 |
| 20260507142341 | 20 | 46 | 8.0 | 14.5 | 0.00 | 0.79 | 0.00 | 53 | 1011.6 |
| 20260507142325 | 20 | 113 | 3.2 | 14.5 | 0.00 | 0.79 | 0.00 | 55 | 1011.3 |
| 20260507142226 | 20 | 92 | 3.2 | 14.5 | 0.00 | 0.79 | 0.00 | 57 | 1011.3 |
| 20260507142147 | 20 | 330 | 6.4 | 14.5 | 0.00 | 0.79 | 0.00 | 55 | 1011.2 |
| 20260507142103 | 20 | 34 | 6.4 | 14.5 | 0.00 | 0.79 | 0.00 | 52 | 1011.3 |
| 20260507141817 | 20 | 309 | 6.4 | 14.5 | 0.00 | 0.79 | 0.00 | 56 | 1011.2 |
| 20260507141744 | 20 | 67 | 6.4 | 11.3 | 0.00 | 0.79 | 0.00 | 56 | 1011.6 |
| 20260507141716 | 20 | 323 | 6.4 | 14.5 | 0.00 | 0.79 | 0.00 | 59 | 1011.3 |
| 20260507141618 | 20 | 43 | 6.4 | 14.5 | 0.00 | 0.79 | 0.00 | 58 | 1011.3 |
| 20260507141516 | 20 | 25 | 8.0 | 14.5 | 0.00 | 0.79 | 0.00 | 58 | 1011.3 |
| 20260507141413 | 20 | 323 | 6.4 | 14.5 | 0.00 | 0.79 | 0.00 | 57 | 1011.3 |
| 20260507141312 | 20 | 329 | 3.2 | 14.5 | 0.00 | 0.79 | 0.00 | 53 | 1011.5 |
| 20260507141210 | 20 | 298 | 1.6 | 14.5 | 0.00 | 0.79 | 0.00 | 58 | 1011.5 |
| 20260507141110 | 20 | 221 | 1.6 | 14.5 | 0.00 | 0.79 | 0.00 | 57 | 1011.5 |
| 20260507141018 | 20 | 80 | 1.6 | 14.5 | 0.00 | 0.79 | 0.00 | 57 | 1011.5 |
| 20260507140921 | 20 | 44 | 1.6 | 14.5 | 0.00 | 0.79 | 0.00 | 54 | 1011.5 |
| 20260507140844 | 20 | 178 | 3.2 | 14.5 | 0.00 | 0.79 | 0.00 | 52 | 1011.3 |
| 20260507140620 | 19 | 111 | 3.2 | 9.7 | 0.00 | 0.79 | 0.00 | 55 | 1012.0 |
| 20260507140601 | 20 | 304 | 9.7 | 14.5 | 0.00 | 0.79 | 0.00 | 54 | 1011.6 |
| 20260507140509 | 20 | 310 | 4.8 | 14.5 | 0.00 | 0.79 | 0.00 | 57 | 1011.5 |
| 20260507140421 | 19 | 338 | 4.8 | 14.5 | 0.00 | 0.79 | 0.00 | 53 | 1011.6 |
| 20260507140339 | 19 | 34 | 6.4 | 14.5 | 0.00 | 0.79 | 0.00 | 55 | 1011.6 |
| 20260507140302 | 19 | 76 | 6.4 | 14.5 | 0.00 | 0.79 | 0.00 | 57 | 1011.6 |
| 20260507140216 | 19 | 74 | 8.0 | 14.5 | 0.00 | 0.79 | 0.00 | 54 | 1011.6 |
| 20260507140132 | 20 | 339 | 6.4 | 14.5 | 0.00 | 0.79 | 0.00 | 57 | 1011.6 |
| 20260507135652 | 20 | 51 | 6.4 | 14.5 | 0.00 | 0.79 | 0.00 | 54 | 1011.7 |
| 20260507135640 | 19 | 93 | 4.8 | 14.5 | 0.00 | 0.79 | 0.00 | 60 | 1012.1 |
| 20260507135550 | 20 | 57 | 4.8 | 14.5 | 0.00 | 0.79 | 0.00 | 58 | 1011.7 |
| 20260507135449 | 20 | 51 | 9.7 | 14.5 | 0.00 | 0.79 | 0.00 | 57 | 1011.6 |
| 20260507135351 | 20 | 80 | 9.7 | 14.5 | 0.00 | 0.79 | 0.00 | 60 | 1011.6 |
| 20260507135309 | 20 | 126 | 6.4 | 12.9 | 0.00 | 0.79 | 0.00 | 55 | 1011.7 |
| 20260507135230 | 20 | 93 | 6.4 | 11.3 | 0.00 | 0.79 | 0.00 | 57 | 1011.7 |
| 20260507134944 | 20 | 115 | 4.8 | 11.3 | 0.00 | 0.79 | 0.00 | 55 | 1011.7 |
| 20260507134855 | 20 | 138 | 4.8 | 11.3 | 0.00 | 0.79 | 0.00 | 56 | 1011.7 |
| 20260507134813 | 20 | 139 | 4.8 | 11.3 | 0.00 | 0.79 | 0.00 | 54 | 1011.7 |
| 20260507134734 | 20 | 51 | 6.4 | 11.3 | 0.00 | 0.79 | 0.00 | 58 | 1011.7 |
| 20260507134540 | 20 | 67 | 4.8 | 11.3 | 0.00 | 0.79 | 0.00 | 57 | 1011.7 |
| 20260507134437 | 20 | 63 | 3.2 | 11.3 | 0.00 | 0.79 | 0.00 | 57 | 1011.7 |
| 20260507134406 | 19 | 131 | 6.4 | 16.1 | 0.00 | 0.79 | 0.00 | 57 | 1012.2 |
| 20260507134338 | 20 | 80 | 3.2 | 9.7 | 0.00 | 0.79 | 0.00 | 58 | 1011.7 |
| 20260507134237 | 19 | 298 | 3.2 | 9.7 | 0.00 | 0.79 | 0.00 | 52 | 1011.7 |
| 20260507134136 | 19 | 309 | 3.2 | 9.7 | 0.00 | 0.79 | 0.00 | 52 | 1011.7 |
| 20260507134118 | 19 | 62 | 8.0 | 16.1 | 0.00 | 0.79 | 0.00 | 61 | 1012.1 |
| 20260507134036 | 20 | 247 | 3.2 | 9.7 | 0.00 | 0.79 | 0.00 | 52 | 1011.8 |
| 20260507133944 | 18 | 137 | 3.2 | 12.9 | 0.00 | 0.79 | 0.00 | 58 | 1012.2 |
| 20260507133931 | 20 | 169 | 4.8 | 9.7 | 0.00 | 0.79 | 0.00 | 54 | 1011.8 |
| 20260507133833 | 20 | 190 | 4.8 | 9.7 | 0.00 | 0.79 | 0.00 | 54 | 1011.8 |
| 20260507133753 | 20 | 171 | 4.8 | 9.7 | 0.00 | 0.79 | 0.00 | 60 | 1011.8 |
| 20260507133710 | 20 | 200 | 3.2 | 9.7 | 0.00 | 0.79 | 0.00 | 55 | 1011.8 |
| 20260507133626 | 19 | 186 | 1.6 | 9.7 | 0.00 | 0.79 | 0.00 | 58 | 1011.9 |
| 20260507133427 | 19 | 126 | 3.2 | 9.7 | 0.00 | 0.79 | 0.00 | 55 | 1011.9 |
| 20260507133416 | 19 | 24 | 3.2 | 11.3 | 0.00 | 0.79 | 0.00 | 60 | 1012.2 |
| 20260507133350 | 18 | 41 | 3.2 | 11.3 | 0.00 | 0.79 | 0.00 | 62 | 1012.2 |
| 20260507133329 | 19 | 193 | 6.4 | 9.7 | 0.00 | 0.79 | 0.00 | 56 | 1012.0 |
| 20260507133249 | 19 | 183 | 4.8 | 9.7 | 0.00 | 0.79 | 0.00 | 56 | 1012.0 |
| 20260507133207 | 19 | 219 | 4.8 | 9.7 | 0.00 | 0.79 | 0.00 | 56 | 1012.0 |
| 20260507132936 | 19 | 146 | 3.2 | 14.5 | 0.00 | 0.79 | 0.00 | 56 | 1012.0 |
| 20260507132854 | 19 | 93 | 4.8 | 14.5 | 0.00 | 0.79 | 0.00 | 59 | 1012.0 |
| 20260507132814 | 19 | 108 | 4.8 | 14.5 | 0.00 | 0.79 | 0.00 | 61 | 1012.0 |
| 20260507132549 | 19 | 86 | 3.2 | 14.5 | 0.00 | 0.79 | 0.00 | 60 | 1012.1 |
| 20260507132505 | 19 | 76 | 3.2 | 14.5 | 0.00 | 0.79 | 0.00 | 63 | 1012.1 |
| 20260507132423 | 18 | 34 | 6.4 | 14.5 | 0.00 | 0.79 | 0.00 | 60 | 1012.0 |
| 20260507132343 | 18 | 346 | 8.0 | 14.5 | 0.00 | 0.79 | 0.00 | 59 | 1012.1 |
| 20260507132301 | 18 | 346 | 8.0 | 14.5 | 0.00 | 0.79 | 0.00 | 59 | 1012.1 |
| 20260507132216 | 18 | 48 | 8.0 | 14.5 | 0.00 | 0.79 | 0.00 | 60 | 1012.2 |
| 20260507132132 | 19 | 57 | 8.0 | 14.5 | 0.00 | 0.79 | 0.00 | 58 | 1012.1 |
| 20260507132050 | 19 | 65 | 4.8 | 14.5 | 0.00 | 0.79 | 0.00 | 62 | 1012.2 |
| 20260507131833 | 19 | 30 | 6.4 | 16.1 | 0.00 | 0.79 | 0.00 | 60 | 1012.2 |
| 20260507131745 | 19 | 45 | 8.0 | 16.1 | 0.00 | 0.79 | 0.00 | 61 | 1012.2 |
| 20260507131521 | 19 | 74 | 3.2 | 16.1 | 0.00 | 0.79 | 0.00 | 60 | 1012.2 |
| 20260507131441 | 19 | 328 | 3.2 | 16.1 | 0.00 | 0.79 | 0.00 | 60 | 1012.2 |
| 20260507131359 | 19 | 319 | 4.8 | 16.1 | 0.00 | 0.79 | 0.00 | 60 | 1012.2 |
| 20260507131313 | 19 | 93 | 9.7 | 16.1 | 0.00 | 0.79 | 0.00 | 59 | 1012.1 |
| 20260507131231 | 19 | 50 | 11.3 | 16.1 | 0.00 | 0.79 | 0.00 | 63 | 1012.2 |
| 20260507130956 | 19 | 30 | 3.2 | 12.9 | 0.00 | 0.79 | 0.00 | 58 | 1012.1 |
| 20260507130901 | 19 | 59 | 1.6 | 12.9 | 0.00 | 0.79 | 0.00 | 57 | 1012.2 |
| 20260507130620 | 18 | 309 | 6.4 | 12.9 | 0.00 | 0.79 | 0.00 | 58 | 1012.2 |
| 20260507125945 | 18 | 344 | 3.2 | 11.3 | 0.00 | 0.79 | 0.00 | 59 | 1012.2 |
| 20260507125845 | 18 | 59 | 3.2 | 11.3 | 0.00 | 0.79 | 0.00 | 58 | 1012.3 |
| 20260507125742 | 18 | 142 | 4.8 | 11.3 | 0.00 | 0.79 | 0.00 | 60 | 1012.3 |
| 20260507125641 | 18 | 313 | 6.4 | 11.3 | 0.00 | 0.79 | 0.00 | 60 | 1012.3 |
| 20260507125541 | 18 | 22 | 6.4 | 11.3 | 0.00 | 0.79 | 0.00 | 58 | 1012.3 |
| 20260507125439 | 18 | 34 | 6.4 | 11.3 | 0.00 | 0.79 | 0.00 | 59 | 1012.3 |
| 20260507125421 | 18 | 88 | 3.2 | 17.7 | 0.00 | 0.79 | 0.00 | 63 | 1012.4 |
| 20260507125353 | 18 | 41 | 6.4 | 11.3 | 0.00 | 0.79 | 0.00 | 59 | 1012.3 |
| 20260507125313 | 19 | 36 | 6.4 | 9.7 | 0.00 | 0.79 | 0.00 | 62 | 1012.3 |
| 20260507125231 | 18 | 69 | 4.8 | 14.5 | 0.00 | 0.79 | 0.00 | 63 | 1012.4 |
| 20260507124936 | 18 | 126 | 4.8 | 17.7 | 0.00 | 0.79 | 0.00 | 61 | 1012.4 |
| 20260507124914 | 15 | 108 | 8.0 | 14.5 | 0.00 | 0.79 | 0.00 | 74 | 1013.7 |
| 20260507124834 | 18 | 48 | 4.8 | 17.7 | 0.00 | 0.79 | 0.00 | 63 | 1012.4 |
| 20260507124732 | 18 | 102 | 3.2 | 17.7 | 0.00 | 0.79 | 0.00 | 61 | 1012.4 |
| 20260507124631 | 18 | 72 | 4.8 | 17.7 | 0.00 | 0.79 | 0.00 | 62 | 1012.4 |
| 20260507124532 | 18 | 61 | 6.4 | 17.7 | 0.00 | 0.79 | 0.00 | 62 | 1012.4 |
| 20260507124428 | 18 | 44 | 6.4 | 17.7 | 0.00 | 0.79 | 0.00 | 61 | 1012.4 |
| 20260507124327 | 18 | 63 | 11.3 | 17.7 | 0.00 | 0.79 | 0.00 | 61 | 1012.4 |
| 20260507124247 | 18 | 9 | 6.4 | 14.5 | 0.00 | 0.79 | 0.00 | 60 | 1012.4 |
| 20260507124231 | 18 | 97 | 12.9 | 17.7 | 0.00 | 0.79 | 0.00 | 62 | 1012.4 |
| 20260507124149 | 18 | 105 | 9.7 | 17.7 | 0.00 | 0.79 | 0.00 | 65 | 1012.3 |
| 20260507124106 | 18 | 34 | 8.0 | 14.5 | 0.00 | 0.79 | 0.00 | 60 | 1012.3 |
| 20260507123821 | 19 | 41 | 4.8 | 14.5 | 0.00 | 0.79 | 0.00 | 58 | 1012.4 |
| 20260507123734 | 19 | 39 | 3.2 | 14.5 | 0.00 | 0.79 | 0.00 | 62 | 1012.4 |
| 20260507123619 | 19 | 109 | 6.4 | 14.5 | 0.00 | 0.79 | 0.00 | 64 | 1012.4 |
| 20260507123521 | 19 | 119 | 6.4 | 14.5 | 0.00 | 0.79 | 0.00 | 60 | 1012.4 |
| 20260507123433 | 19 | 71 | 6.4 | 12.9 | 0.00 | 0.79 | 0.00 | 61 | 1012.5 |
| 20260507123418 | 19 | 126 | 4.8 | 14.5 | 0.00 | 0.79 | 0.00 | 64 | 1012.5 |
| 20260507123317 | 18 | 93 | 4.8 | 14.5 | 0.00 | 0.79 | 0.00 | 65 | 1012.5 |
| 20260507123237 | 18 | 178 | 8.0 | 14.5 | 0.00 | 0.79 | 0.00 | 59 | 1012.5 |
| 20260507123155 | 18 | 110 | 9.7 | 14.5 | 0.00 | 0.79 | 0.00 | 58 | 1012.5 |
| 20260507122929 | 18 | 173 | 4.8 | 12.9 | 0.00 | 0.79 | 0.00 | 61 | 1012.5 |
| 20260507122912 | 19 | 87 | 4.8 | 12.9 | 0.00 | 0.79 | 0.00 | 64 | 1012.5 |
| 20260507122830 | 18 | 100 | 6.4 | 12.9 | 0.00 | 0.79 | 0.00 | 60 | 1012.5 |
| 20260507122746 | 18 | 126 | 6.4 | 12.9 | 0.00 | 0.79 | 0.00 | 61 | 1012.5 |
| 20260507122506 | 18 | 221 | 6.4 | 12.9 | 0.00 | 0.79 | 0.00 | 64 | 1012.6 |
| 20260507122406 | 18 | 111 | 8.0 | 12.9 | 0.00 | 0.79 | 0.00 | 64 | 1012.6 |
| 20260507122307 | 18 | 54 | 8.0 | 14.5 | 0.00 | 0.79 | 0.00 | 62 | 1012.6 |
| 20260507122238 | 18 | 205 | 6.4 | 14.5 | 0.00 | 0.79 | 0.00 | 61 | 1012.6 |
| 20260507122205 | 18 | 101 | 6.4 | 14.5 | 0.00 | 0.79 | 0.00 | 62 | 1012.5 |
| 20260507122104 | 18 | 123 | 4.8 | 14.5 | 0.00 | 0.79 | 0.00 | 63 | 1012.6 |
| 20260507122018 | 18 | 111 | 4.8 | 14.5 | 0.00 | 0.79 | 0.00 | 65 | 1012.6 |
| 20260507121936 | 18 | 72 | 4.8 | 14.5 | 0.00 | 0.79 | 0.00 | 63 | 1012.6 |
| 20260507121732 | 18 | 74 | 4.8 | 16.1 | 0.00 | 0.79 | 0.00 | 64 | 1012.7 |
| 20260507121659 | 18 | 133 | 6.4 | 16.1 | 0.00 | 0.79 | 0.00 | 63 | 1012.6 |
| 20260507121617 | 18 | 103 | 6.4 | 16.1 | 0.00 | 0.79 | 0.00 | 62 | 1012.6 |
| 20260507121532 | 18 | 134 | 6.4 | 16.1 | 0.00 | 0.79 | 0.00 | 64 | 1012.7 |
| 20260507121248 | 18 | 90 | 3.2 | 16.1 | 0.00 | 0.79 | 0.00 | 63 | 1012.8 |
| 20260507121147 | 17 | 98 | 4.8 | 16.1 | 0.00 | 0.79 | 0.00 | 61 | 1012.7 |
| 20260507121046 | 18 | 17 | 6.4 | 16.1 | 0.00 | 0.79 | 0.00 | 65 | 1012.8 |
| 20260507120946 | 17 | 74 | 9.7 | 16.1 | 0.00 | 0.79 | 0.00 | 63 | 1012.7 |
| 20260507120843 | 18 | 75 | 9.7 | 16.1 | 0.00 | 0.79 | 0.00 | 61 | 1012.8 |
| 20260507120743 | 17 | 88 | 4.8 | 16.1 | 0.00 | 0.79 | 0.00 | 64 | 1012.8 |
| 20260507120640 | 17 | 67 | 3.2 | 12.9 | 0.00 | 0.79 | 0.00 | 63 | 1012.8 |
| 20260507120540 | 17 | 93 | 4.8 | 12.9 | 0.00 | 0.79 | 0.00 | 61 | 1012.8 |
| 20260507120500 | 18 | 63 | 8.0 | 12.9 | 0.00 | 0.79 | 0.00 | 66 | 1012.9 |
| 20260507120433 | 17 | 298 | 4.8 | 12.9 | 0.00 | 0.79 | 0.00 | 61 | 1012.8 |
| 20260507120351 | 17 | 312 | 6.4 | 12.9 | 0.00 | 0.79 | 0.00 | 64 | 1012.9 |
| 20260507120309 | 17 | 105 | 8.0 | 12.9 | 0.00 | 0.79 | 0.00 | 63 | 1012.9 |
| 20260507120027 | 18 | 65 | 6.4 | 12.9 | 0.00 | 0.79 | 0.00 | 66 | 1012.9 |
| 20260507115928 | 17 | 334 | 4.8 | 8.0 | 0.00 | 0.79 | 0.00 | 65 | 1012.9 |
| 20260507115825 | 17 | 30 | 3.2 | 8.0 | 0.00 | 0.79 | 0.00 | 65 | 1012.9 |
| 20260507115724 | 17 | 67 | 3.2 | 12.9 | 0.00 | 0.79 | 0.00 | 62 | 1013.0 |
| 20260507115623 | 17 | 137 | 3.2 | 12.9 | 0.00 | 0.79 | 0.00 | 60 | 1012.9 |
| 20260507115525 | 17 | 144 | 1.6 | 12.9 | 0.00 | 0.79 | 0.00 | 64 | 1013.0 |
| 20260507115423 | 17 | 209 | 1.6 | 12.9 | 0.00 | 0.79 | 0.00 | 60 | 1013.0 |
| 20260507115319 | 17 | 221 | 1.6 | 12.9 | 0.00 | 0.79 | 0.00 | 63 | 1013.0 |
| 20260507115218 | 17 | 282 | 1.6 | 12.9 | 0.00 | 0.79 | 0.00 | 61 | 1013.0 |
| 20260507115118 | 17 | 265 | 3.2 | 12.9 | 0.00 | 0.79 | 0.00 | 61 | 1013.0 |
| 20260507115014 | 17 | 51 | 4.8 | 12.9 | 0.00 | 0.79 | 0.00 | 63 | 1013.0 |
| 20260507114914 | 17 | 117 | 8.0 | 12.9 | 0.00 | 0.79 | 0.00 | 62 | 1013.0 |
| 20260507114813 | 17 | 123 | 8.0 | 12.9 | 0.00 | 0.79 | 0.00 | 62 | 1013.0 |
| 20260507114758 | 17 | 134 | 6.4 | 14.5 | 0.00 | 0.79 | 0.00 | 63 | 1013.0 |
| 20260507114714 | 17 | 102 | 8.0 | 12.9 | 0.00 | 0.79 | 0.00 | 67 | 1013.0 |
| 20260507114627 | 17 | 108 | 8.0 | 12.9 | 0.00 | 0.79 | 0.00 | 64 | 1013.0 |
| 20260507114544 | 17 | 135 | 6.4 | 12.9 | 0.00 | 0.79 | 0.00 | 62 | 1013.0 |
| 20260507114458 | 17 | 129 | 4.8 | 14.5 | 0.00 | 0.79 | 0.00 | 62 | 1013.1 |
| 20260507114312 | 17 | 144 | 4.8 | 14.5 | 0.00 | 0.79 | 0.00 | 63 | 1013.1 |
| 20260507114231 | 17 | 153 | 6.4 | 14.5 | 0.00 | 0.79 | 0.00 | 63 | 1013.1 |
| 20260507114149 | 17 | 113 | 6.4 | 14.5 | 0.00 | 0.79 | 0.00 | 64 | 1013.1 |
| 20260507113921 | 17 | 138 | 8.0 | 14.5 | 0.00 | 0.79 | 0.00 | 64 | 1013.1 |
| 20260507113841 | 17 | 116 | 6.4 | 14.5 | 0.00 | 0.79 | 0.00 | 68 | 1013.2 |
| 20260507113559 | 17 | 51 | 6.4 | 14.5 | 0.00 | 0.79 | 0.00 | 66 | 1013.1 |
| 20260507113500 | 17 | 121 | 3.2 | 14.5 | 0.00 | 0.79 | 0.00 | 64 | 1013.1 |
| 20260507113357 | 17 | 61 | 3.2 | 9.7 | 0.00 | 0.79 | 0.00 | 62 | 1013.2 |
| 20260507113257 | 17 | 137 | 4.8 | 9.7 | 0.00 | 0.79 | 0.00 | 64 | 1013.2 |
| 20260507113154 | 17 | 265 | 6.4 | 9.7 | 0.00 | 0.79 | 0.00 | 64 | 1013.2 |
| 20260507113053 | 17 | 323 | 6.4 | 9.7 | 0.00 | 0.79 | 0.00 | 65 | 1013.2 |
| 20260507112952 | 17 | 9 | 6.4 | 9.7 | 0.00 | 0.79 | 0.00 | 66 | 1013.2 |
| 20260507112850 | 17 | 312 | 4.8 | 9.7 | 0.00 | 0.79 | 0.00 | 62 | 1013.3 |
| 20260507112807 | 17 | 284 | 4.8 | 12.9 | 0.00 | 0.79 | 0.00 | 63 | 1013.4 |
| 20260507112749 | 17 | 338 | 4.8 | 9.7 | 0.00 | 0.79 | 0.00 | 65 | 1013.3 |
| 20260507112649 | 17 | 9 | 4.8 | 9.7 | 0.00 | 0.79 | 0.00 | 66 | 1013.3 |
| 20260507112547 | 17 | 19 | 4.8 | 8.0 | 0.00 | 0.79 | 0.00 | 69 | 1013.3 |
| 20260507112445 | 17 | 325 | 4.8 | 8.0 | 0.00 | 0.79 | 0.00 | 65 | 1013.2 |
| 20260507112345 | 17 | 335 | 3.2 | 9.7 | 0.00 | 0.79 | 0.00 | 65 | 1013.3 |
| 20260507112323 | 17 | 34 | 6.4 | 9.7 | 0.00 | 0.79 | 0.00 | 69 | 1013.4 |
| 20260507112244 | 17 | 9 | 4.8 | 9.7 | 0.00 | 0.79 | 0.00 | 65 | 1013.3 |
| 20260507112142 | 17 | 144 | 3.2 | 12.9 | 0.00 | 0.79 | 0.00 | 64 | 1013.3 |
| 20260507112103 | 17 | 155 | 4.8 | 11.3 | 0.00 | 0.79 | 0.00 | 67 | 1013.5 |
| 20260507112044 | 17 | 128 | 3.2 | 12.9 | 0.00 | 0.79 | 0.00 | 64 | 1013.3 |
| 20260507111953 | 17 | 76 | 3.2 | 12.9 | 0.00 | 0.79 | 0.00 | 63 | 1013.3 |
| 20260507111909 | 17 | 340 | 3.2 | 12.9 | 0.00 | 0.79 | 0.00 | 62 | 1013.3 |
| 20260507111828 | 17 | 334 | 4.8 | 12.9 | 0.00 | 0.79 | 0.00 | 62 | 1013.3 |
| 20260507111607 | 17 | 294 | 6.4 | 12.9 | 0.00 | 0.79 | 0.00 | 62 | 1013.3 |
| 20260507111521 | 17 | 286 | 6.4 | 12.9 | 0.00 | 0.79 | 0.00 | 62 | 1013.3 |
| 20260507111331 | 17 | 304 | 8.0 | 12.9 | 0.00 | 0.79 | 0.00 | 65 | 1013.3 |
| 20260507111238 | 17 | 306 | 6.4 | 12.9 | 0.00 | 0.79 | 0.00 | 65 | 1013.3 |
| 20260507111128 | 17 | 303 | 3.2 | 9.7 | 0.00 | 0.79 | 0.00 | 63 | 1013.2 |
| 20260507111028 | 17 | 273 | 1.6 | 9.7 | 0.00 | 0.79 | 0.00 | 70 | 1013.4 |
| 20260507110925 | 17 | 221 | 1.6 | 9.7 | 0.00 | 0.79 | 0.00 | 68 | 1013.4 |
| 20260507110843 | 17 | 238 | 3.2 | 9.7 | 0.00 | 0.79 | 0.00 | 63 | 1013.4 |
| 20260507110802 | 17 | 319 | 4.8 | 9.7 | 0.00 | 0.79 | 0.00 | 65 | 1013.4 |
| 20260507110720 | 17 | 284 | 6.4 | 9.7 | 0.00 | 0.79 | 0.00 | 67 | 1013.4 |
| 20260507110444 | 17 | 22 | 4.8 | 9.7 | 0.00 | 0.79 | 0.00 | 66 | 1013.4 |
| 20260507110402 | 17 | 336 | 6.4 | 9.7 | 0.00 | 0.79 | 0.00 | 67 | 1013.4 |
| 20260507110320 | 17 | 49 | 6.4 | 9.7 | 0.00 | 0.79 | 0.00 | 67 | 1013.5 |
| 20260507110226 | 17 | 47 | 6.4 | 9.7 | 0.00 | 0.79 | 0.00 | 70 | 1013.5 |
| 20260507110143 | 17 | 67 | 6.4 | 8.0 | 0.00 | 0.79 | 0.00 | 66 | 1013.5 |
| 20260507105709 | 16 | 79 | 3.2 | 11.3 | 0.00 | 0.79 | 0.00 | 68 | 1013.6 |
| 20260507105609 | 16 | 54 | 4.8 | 11.3 | 0.00 | 0.79 | 0.00 | 67 | 1013.5 |
| 20260507105511 | 16 | 117 | 4.8 | 11.3 | 0.00 | 0.79 | 0.00 | 67 | 1013.5 |
| 20260507105405 | 16 | 49 | 3.2 | 11.3 | 0.00 | 0.79 | 0.00 | 66 | 1013.5 |
| 20260507105306 | 16 | 344 | 3.2 | 11.3 | 0.00 | 0.79 | 0.00 | 66 | 1013.5 |
| 20260507105200 | 17 | 34 | 6.4 | 11.3 | 0.00 | 0.79 | 0.00 | 63 | 1013.5 |
| 20260507105056 | 17 | 48 | 6.4 | 11.3 | 0.00 | 0.79 | 0.00 | 67 | 1013.5 |
| 20260507104953 | 17 | 103 | 4.8 | 11.3 | 0.00 | 0.79 | 0.00 | 67 | 1013.5 |
| 20260507104852 | 17 | 93 | 4.8 | 8.0 | 0.00 | 0.79 | 0.00 | 70 | 1013.5 |
| 20260507104811 | 17 | 31 | 3.2 | 8.0 | 0.00 | 0.79 | 0.00 | 69 | 1013.6 |
| 20260507104730 | 17 | 51 | 3.2 | 8.0 | 0.00 | 0.79 | 0.00 | 68 | 1013.6 |
| 20260507104646 | 16 | 59 | 3.2 | 8.0 | 0.00 | 0.79 | 0.00 | 67 | 1013.5 |
| 20260507104446 | 16 | 103 | 3.2 | 8.0 | 0.00 | 0.79 | 0.00 | 63 | 1013.5 |
| 20260507104344 | 16 | 142 | 4.8 | 9.7 | 0.00 | 0.79 | 0.00 | 64 | 1013.5 |
| 20260507104245 | 16 | 165 | 4.8 | 9.7 | 0.00 | 0.79 | 0.00 | 64 | 1013.5 |
| 20260507104144 | 16 | 196 | 3.2 | 11.3 | 0.00 | 0.79 | 0.00 | 70 | 1013.5 |
| 20260507104041 | 16 | 137 | 3.2 | 11.3 | 0.00 | 0.79 | 0.00 | 68 | 1013.5 |
| 20260507103942 | 16 | 9 | 3.2 | 11.3 | 0.00 | 0.79 | 0.00 | 63 | 1013.5 |
| 20260507103930 | 16 | 160 | 3.2 | 11.3 | 0.00 | 0.79 | 0.00 | 69 | 1013.6 |
| 20260507103837 | 16 | 298 | 3.2 | 11.3 | 0.00 | 0.79 | 0.00 | 65 | 1013.5 |
| 20260507103735 | 16 | 265 | 3.2 | 12.9 | 0.00 | 0.79 | 0.00 | 67 | 1013.5 |
| 20260507103651 | 16 | 215 | 4.8 | 12.9 | 0.00 | 0.79 | 0.00 | 67 | 1013.5 |
| 20260507103603 | 16 | 119 | 4.8 | 12.9 | 0.00 | 0.79 | 0.00 | 70 | 1013.6 |
| 20260507103515 | 16 | 93 | 6.4 | 12.9 | 0.00 | 0.79 | 0.00 | 69 | 1013.6 |
| 20260507103229 | 16 | 128 | 6.4 | 12.9 | 0.00 | 0.79 | 0.00 | 71 | 1013.6 |
| 20260507103127 | 16 | 101 | 3.2 | 12.9 | 0.00 | 0.79 | 0.00 | 69 | 1013.5 |
| 20260507103029 | 16 | 93 | 3.2 | 12.9 | 0.00 | 0.79 | 0.00 | 66 | 1013.5 |
| 20260507102925 | 16 | 41 | 6.4 | 12.9 | 0.00 | 0.79 | 0.00 | 67 | 1013.5 |
| 20260507102822 | 16 | 54 | 6.4 | 12.9 | 0.00 | 0.79 | 0.00 | 67 | 1013.6 |
| 20260507102723 | 16 | 71 | 4.8 | 11.3 | 0.00 | 0.79 | 0.00 | 70 | 1013.6 |
| 20260507102635 | 16 | 100 | 4.8 | 11.3 | 0.00 | 0.79 | 0.00 | 70 | 1013.6 |
| 20260507102554 | 16 | 105 | 3.2 | 11.3 | 0.00 | 0.79 | 0.00 | 67 | 1013.7 |
| 20260507102505 | 16 | 170 | 4.8 | 11.3 | 0.00 | 0.79 | 0.00 | 68 | 1013.6 |
| 20260507102422 | 16 | 163 | 4.8 | 11.3 | 0.00 | 0.79 | 0.00 | 68 | 1013.6 |
| 20260507102339 | 16 | 126 | 6.4 | 11.3 | 0.00 | 0.79 | 0.00 | 73 | 1013.7 |
| 20260507102117 | 16 | 221 | 1.6 | 8.0 | 0.00 | 0.79 | 0.00 | 67 | 1013.7 |
| 20260507101910 | 16 | 221 | 3.2 | 8.0 | 0.00 | 0.79 | 0.00 | 68 | 1013.7 |
| 20260507101811 | 16 | 178 | 3.2 | 8.0 | 0.00 | 0.79 | 0.00 | 69 | 1013.7 |
| 20260507101711 | 16 | 170 | 3.2 | 8.0 | 0.00 | 0.79 | 0.00 | 68 | 1013.7 |
| 20260507101608 | 16 | 178 | 3.2 | 12.9 | 0.00 | 0.79 | 0.00 | 68 | 1013.7 |
| 20260507101508 | 16 | 162 | 3.2 | 12.9 | 0.00 | 0.79 | 0.00 | 68 | 1013.8 |
| 20260507101428 | 15 | 48 | 3.2 | 9.7 | 0.00 | 0.79 | 0.00 | 76 | 1013.8 |
| 20260507101405 | 16 | 142 | 3.2 | 12.9 | 0.00 | 0.79 | 0.00 | 72 | 1013.8 |
| 20260507101336 | 15 | 119 | 3.2 | 9.7 | 0.00 | 0.79 | 0.00 | 76 | 1013.8 |
| 20260507101304 | 16 | 110 | 3.2 | 12.9 | 0.00 | 0.79 | 0.00 | 71 | 1013.7 |
| 20260507101203 | 15 | 111 | 3.2 | 12.9 | 0.00 | 0.79 | 0.00 | 70 | 1013.7 |
| 20260507101102 | 15 | 137 | 1.6 | 12.9 | 0.00 | 0.79 | 0.00 | 70 | 1013.7 |
| 20260507101032 | 15 | 46 | 4.8 | 11.3 | 0.00 | 0.79 | 0.00 | 77 | 1013.9 |
| 20260507101001 | 15 | 178 | 3.2 | 12.9 | 0.00 | 0.79 | 0.00 | 71 | 1013.6 |
| 20260507100911 | 15 | 54 | 6.4 | 11.3 | 0.00 | 0.79 | 0.00 | 80 | 1013.9 |
| 20260507100859 | 15 | 151 | 6.4 | 12.9 | 0.00 | 0.79 | 0.00 | 72 | 1013.6 |
| 20260507100800 | 15 | 59 | 6.4 | 14.5 | 0.00 | 0.79 | 0.00 | 70 | 1013.7 |
| 20260507100716 | 15 | 178 | 4.8 | 11.3 | 0.00 | 0.79 | 0.00 | 77 | 1013.8 |
| 20260507100700 | 15 | 11 | 4.8 | 14.5 | 0.00 | 0.79 | 0.00 | 73 | 1013.6 |
| 20260507100558 | 15 | 119 | 4.8 | 14.5 | 0.00 | 0.79 | 0.00 | 75 | 1013.7 |
| 20260507100459 | 15 | 106 | 4.8 | 14.5 | 0.00 | 0.79 | 0.00 | 75 | 1013.6 |
| 20260507100408 | 15 | 51 | 4.8 | 14.5 | 0.00 | 0.79 | 0.00 | 78 | 1013.7 |
| 20260507100327 | 15 | 123 | 4.8 | 14.5 | 0.00 | 0.79 | 0.00 | 75 | 1013.7 |
| 20260507100248 | 15 | 93 | 8.0 | 14.5 | 0.00 | 0.79 | 0.00 | 74 | 1013.7 |
| 20260507095952 | 15 | 93 | 6.4 | 14.5 | 0.00 | 0.79 | 0.00 | 75 | 1013.7 |
| 20260507095849 | 15 | 56 | 6.4 | 14.5 | 0.00 | 0.79 | 0.00 | 76 | 1013.7 |
| 20260507095748 | 15 | 76 | 6.4 | 14.5 | 0.00 | 0.79 | 0.00 | 75 | 1013.7 |
| 20260507095646 | 15 | 45 | 8.0 | 14.5 | 0.00 | 0.79 | 0.00 | 74 | 1013.7 |
| 20260507095546 | 15 | 64 | 4.8 | 14.5 | 0.00 | 0.79 | 0.00 | 78 | 1013.7 |
| 20260507095443 | 15 | 65 | 3.2 | 12.9 | 0.00 | 0.79 | 0.00 | 75 | 1013.7 |
| 20260507095400 | 14 | 323 | 3.2 | 9.7 | 0.00 | 0.79 | 0.00 | 77 | 1013.8 |
| 20260507095345 | 15 | 301 | 3.2 | 12.9 | 0.00 | 0.79 | 0.00 | 72 | 1013.7 |
| 20260507095305 | 15 | 9 | 6.4 | 12.9 | 0.00 | 0.79 | 0.00 | 73 | 1013.8 |
| 20260507095221 | 15 | 56 | 8.0 | 12.9 | 0.00 | 0.79 | 0.00 | 74 | 1013.8 |
| 20260507095139 | 15 | 61 | 6.4 | 12.9 | 0.00 | 0.79 | 0.00 | 76 | 1013.8 |
| 20260507095053 | 15 | 38 | 4.8 | 12.9 | 0.00 | 0.79 | 0.00 | 77 | 1013.8 |
| 20260507094626 | 15 | 119 | 4.8 | 9.7 | 0.00 | 0.79 | 0.00 | 76 | 1013.8 |
| 20260507094528 | 15 | 72 | 6.4 | 11.3 | 0.00 | 0.79 | 0.00 | 77 | 1013.8 |
| 20260507094429 | 15 | 56 | 4.8 | 11.3 | 0.00 | 0.79 | 0.00 | 75 | 1013.9 |
| 20260507094344 | 15 | 72 | 3.2 | 11.3 | 0.00 | 0.79 | 0.00 | 77 | 1013.8 |
| 20260507094305 | 15 | 93 | 4.8 | 11.3 | 0.00 | 0.79 | 0.00 | 77 | 1013.9 |
| 20260507094225 | 15 | 78 | 4.8 | 11.3 | 0.00 | 0.79 | 0.00 | 77 | 1013.8 |
| 20260507094001 | 15 | 93 | 6.4 | 11.3 | 0.00 | 0.79 | 0.00 | 77 | 1013.9 |
| 20260507093724 | 15 | 80 | 8.0 | 11.3 | 0.00 | 0.79 | 0.00 | 79 | 1013.9 |
| 20260507093643 | 15 | 72 | 4.8 | 11.3 | 0.00 | 0.79 | 0.00 | 79 | 1013.9 |
| 20260507093600 | 15 | 9 | 3.2 | 11.3 | 0.00 | 0.79 | 0.00 | 77 | 1013.8 |
| 20260507093312 | 15 | 135 | 6.4 | 11.3 | 0.00 | 0.79 | 0.00 | 79 | 1013.8 |
| 20260507093227 | 15 | 121 | 8.0 | 11.3 | 0.00 | 0.79 | 0.00 | 79 | 1013.8 |
| 20260507093145 | 15 | 99 | 6.4 | 11.3 | 0.00 | 0.79 | 0.00 | 80 | 1013.9 |
| 20260507093104 | 15 | 93 | 4.8 | 11.3 | 0.00 | 0.79 | 0.00 | 81 | 1013.8 |
| 20260507093005 | 15 | 93 | 3.2 | 11.3 | 0.00 | 0.79 | 0.00 | 79 | 1013.8 |
| 20260507092808 | 15 | 165 | 3.2 | 6.4 | 0.00 | 0.79 | 0.00 | 77 | 1013.8 |
| 20260507092710 | 15 | 133 | 3.2 | 6.4 | 0.00 | 0.79 | 0.00 | 77 | 1013.7 |
| 20260507092623 | 15 | 36 | 1.6 | 6.4 | 0.00 | 0.79 | 0.00 | 78 | 1013.8 |
| 20260507092544 | 15 | 39 | 1.6 | 6.4 | 0.00 | 0.79 | 0.00 | 76 | 1013.8 |
| 20260507092456 | 15 | 291 | 1.6 | 6.4 | 0.00 | 0.79 | 0.00 | 78 | 1013.8 |
| 20260507092306 | 15 | 309 | 1.6 | 6.4 | 0.00 | 0.79 | 0.00 | 78 | 1013.8 |
| 20260507092158 | 15 | 309 | 3.2 | 8.0 | 0.00 | 0.79 | 0.00 | 79 | 1013.8 |
| 20260507092058 | 14 | 205 | 3.2 | 8.0 | 0.00 | 0.79 | 0.00 | 77 | 1013.8 |
| 20260507091956 | 14 | 284 | 4.8 | 8.0 | 0.00 | 0.79 | 0.00 | 77 | 1013.8 |
| 20260507091854 | 14 | 319 | 4.8 | 8.0 | 0.00 | 0.79 | 0.00 | 77 | 1013.8 |
| 20260507091755 | 14 | 323 | 4.8 | 8.0 | 0.00 | 0.79 | 0.00 | 76 | 1013.8 |
| 20260507091655 | 14 | 341 | 4.8 | 9.7 | 0.00 | 0.79 | 0.00 | 78 | 1013.8 |
| 20260507091600 | 14 | 330 | 3.2 | 9.7 | 0.00 | 0.79 | 0.00 | 76 | 1013.8 |
| 20260507091519 | 14 | 15 | 3.2 | 9.7 | 0.00 | 0.79 | 0.00 | 77 | 1013.8 |
| 20260507091429 | 14 | 334 | 3.2 | 9.7 | 0.00 | 0.79 | 0.00 | 77 | 1013.8 |
| 20260507091145 | 13 | 178 | 3.2 | 9.7 | 0.00 | 0.79 | 0.00 | 78 | 1013.8 |
| 20260507091128 | 13 | 38 | 4.8 | 9.7 | 0.00 | 0.79 | 0.00 | 82 | 1013.9 |
| 20260507091045 | 13 | 34 | 3.2 | 9.7 | 0.00 | 0.79 | 0.00 | 81 | 1013.7 |
| 20260507090945 | 13 | 74 | 4.8 | 9.7 | 0.00 | 0.79 | 0.00 | 78 | 1013.8 |
| 20260507090843 | 13 | 82 | 4.8 | 9.7 | 0.00 | 0.79 | 0.00 | 77 | 1013.8 |
| 20260507090747 | 13 | 45 | 4.8 | 9.7 | 0.00 | 0.79 | 0.00 | 79 | 1013.8 |
| 20260507090708 | 13 | 54 | 4.8 | 6.4 | 0.00 | 0.79 | 0.00 | 79 | 1013.8 |
| 20260507090628 | 13 | 61 | 3.2 | 6.4 | 0.00 | 0.79 | 0.00 | 79 | 1013.8 |
| 20260507090547 | 13 | 49 | 1.6 | 6.4 | 0.00 | 0.79 | 0.00 | 79 | 1013.8 |
| 20260507090457 | 13 | 51 | 1.6 | 6.4 | 0.00 | 0.79 | 0.00 | 80 | 1013.9 |
| 20260507090416 | 13 | 153 | 3.2 | 6.4 | 0.00 | 0.79 | 0.00 | 77 | 1013.8 |
| 20260507090037 | 13 | 255 | 3.2 | 6.4 | 0.00 | 0.79 | 0.00 | 78 | 1013.9 |
| 20260507085957 | 13 | 309 | 1.6 | 8.0 | 0.00 | 0.79 | 0.00 | 80 | 1013.8 |
| 20260507085909 | 13 | 9 | 1.6 | 12.9 | 0.00 | 0.79 | 0.00 | 78 | 1014.0 |
| 20260507085630 | 13 | 108 | 1.6 | 12.9 | 0.00 | 0.79 | 0.00 | 77 | 1014.0 |
| 20260507085531 | 13 | 67 | 3.2 | 12.9 | 0.00 | 0.79 | 0.00 | 78 | 1014.0 |
| 20260507085423 | 13 | 61 | 3.2 | 12.9 | 0.00 | 0.79 | 0.00 | 81 | 1013.9 |
| 20260507085334 | 13 | 24 | 3.2 | 12.9 | 0.00 | 0.79 | 0.00 | 81 | 1013.9 |
| 20260507085251 | 13 | 13 | 4.8 | 12.9 | 0.00 | 0.79 | 0.00 | 79 | 1013.9 |
| 20260507085210 | 13 | 28 | 4.8 | 12.9 | 0.00 | 0.79 | 0.00 | 81 | 1013.9 |
| 20260507085014 | 13 | 31 | 6.4 | 12.9 | 0.00 | 0.79 | 0.00 | 82 | 1013.9 |
| 20260507084912 | 13 | 22 | 6.4 | 12.9 | 0.00 | 0.79 | 0.00 | 79 | 1013.9 |
| 20260507084812 | 13 | 31 | 6.4 | 9.7 | 0.00 | 0.79 | 0.00 | 81 | 1013.9 |
| 20260507084709 | 13 | 63 | 6.4 | 9.7 | 0.00 | 0.79 | 0.00 | 80 | 1013.8 |
| 20260507084609 | 13 | 31 | 6.4 | 9.7 | 0.00 | 0.79 | 0.00 | 79 | 1013.9 |
| 20260507084507 | 13 | 39 | 6.4 | 9.7 | 0.00 | 0.79 | 0.00 | 81 | 1013.9 |
| 20260507084412 | 13 | 344 | 6.4 | 9.7 | 0.00 | 0.79 | 0.00 | 80 | 1013.8 |
| 20260507084325 | 13 | 42 | 6.4 | 9.7 | 0.00 | 0.79 | 0.00 | 82 | 1013.9 |
| 20260507084246 | 13 | 51 | 4.8 | 9.7 | 0.00 | 0.79 | 0.00 | 82 | 1013.9 |
| 20260507084003 | 13 | 55 | 6.4 | 9.7 | 0.00 | 0.79 | 0.00 | 82 | 1013.9 |
| 20260507083953 | 12 | 99 | 3.2 | 6.4 | 0.00 | 0.79 | 0.00 | 84 | 1013.8 |
| 20260507083904 | 13 | 82 | 6.4 | 9.7 | 0.00 | 0.79 | 0.00 | 82 | 1013.9 |
| 20260507083841 | 12 | 137 | 3.2 | 6.4 | 0.00 | 0.79 | 0.00 | 83 | 1013.8 |
| 20260507083802 | 13 | 105 | 6.4 | 9.7 | 0.00 | 0.79 | 0.00 | 83 | 1013.9 |
| 20260507083722 | 13 | 38 | 6.4 | 9.7 | 0.00 | 0.79 | 0.00 | 82 | 1013.9 |
| 20260507083640 | 13 | 75 | 3.2 | 9.7 | 0.00 | 0.79 | 0.00 | 83 | 1013.9 |
| 20260507083359 | 13 | 34 | 3.2 | 8.0 | 0.00 | 0.79 | 0.00 | 82 | 1013.9 |
| 20260507083253 | 13 | 103 | 3.2 | 8.0 | 0.00 | 0.79 | 0.00 | 82 | 1013.9 |
| 20260507083218 | 12 | 238 | 1.6 | 4.8 | 0.00 | 0.79 | 0.00 | 85 | 1013.8 |
| 20260507083152 | 13 | 57 | 4.8 | 8.0 | 0.00 | 0.79 | 0.00 | 83 | 1013.9 |
| 20260507083053 | 13 | 48 | 4.8 | 6.4 | 0.00 | 0.79 | 0.00 | 83 | 1013.9 |
| 20260507083042 | 12 | 298 | 1.6 | 4.8 | 0.00 | 0.79 | 0.00 | 85 | 1013.8 |
| 20260507083001 | 13 | 27 | 4.8 | 6.4 | 0.00 | 0.79 | 0.00 | 83 | 1013.9 |
| 20260507082912 | 13 | 51 | 4.8 | 8.0 | 0.00 | 0.79 | 0.00 | 83 | 1013.9 |
| 20260507082831 | 13 | 119 | 4.8 | 8.0 | 0.00 | 0.79 | 0.00 | 82 | 1014.0 |
| 20260507082547 | 13 | 84 | 3.2 | 8.0 | 0.00 | 0.79 | 0.00 | 83 | 1014.0 |
| 20260507082444 | 13 | 334 | 3.2 | 8.0 | 0.00 | 0.79 | 0.00 | 84 | 1013.9 |
| 20260507082343 | 12 | 9 | 3.2 | 8.0 | 0.00 | 0.79 | 0.00 | 83 | 1013.9 |
| 20260507082243 | 12 | 32 | 3.2 | 8.0 | 0.00 | 0.79 | 0.00 | 82 | 1014.0 |
| 20260507082141 | 13 | 51 | 4.8 | 8.0 | 0.00 | 0.79 | 0.00 | 82 | 1014.0 |
| 20260507082112 | 11 | 34 | 1.6 | 4.8 | 0.00 | 0.79 | 0.00 | 91 | 1013.8 |
| 20260507082044 | 13 | 42 | 4.8 | 8.0 | 0.00 | 0.79 | 0.00 | 84 | 1013.9 |
| 20260507081942 | 13 | 54 | 3.2 | 4.8 | 0.00 | 0.79 | 0.00 | 83 | 1013.9 |
| 20260507081928 | 11 | 119 | 1.6 | 4.8 | 0.00 | 0.79 | 0.00 | 94 | 1013.9 |
| 20260507081841 | 12 | 84 | 3.2 | 4.8 | 0.00 | 0.79 | 0.00 | 83 | 1013.9 |
| 20260507081759 | 12 | 119 | 1.6 | 4.8 | 0.00 | 0.79 | 0.00 | 83 | 1013.9 |
| 20260507081719 | 12 | 115 | 1.6 | 4.8 | 0.00 | 0.79 | 0.00 | 83 | 1014.0 |
| 20260507081637 | 12 | 221 | 1.6 | 4.8 | 0.00 | 0.79 | 0.00 | 83 | 1013.9 |
| 20260507081428 | 12 | 150 | 1.6 | 6.4 | 0.00 | 0.79 | 0.00 | 83 | 1013.8 |
| 20260507081331 | 12 | 165 | 1.6 | 6.4 | 0.00 | 0.79 | 0.00 | 83 | 1013.9 |
| 20260507081251 | 12 | 153 | 1.6 | 6.4 | 0.00 | 0.79 | 0.00 | 81 | 1013.8 |
| 20260507081211 | 12 | 93 | 1.6 | 6.4 | 0.00 | 0.79 | 0.00 | 83 | 1013.9 |
| 20260507081126 | 12 | 137 | 3.2 | 6.4 | 0.00 | 0.79 | 0.00 | 86 | 1013.9 |
| 20260507081043 | 12 | 126 | 3.2 | 6.4 | 0.00 | 0.79 | 0.00 | 85 | 1013.9 |
| 20260507080816 | 12 | 150 | 1.6 | 6.4 | 0.00 | 0.79 | 0.00 | 83 | 1013.9 |
| 20260507080556 | 12 | 153 | 3.2 | 6.4 | 0.00 | 0.79 | 0.00 | 86 | 1013.8 |
| 20260507080458 | 12 | 165 | 1.6 | 6.4 | 0.00 | 0.79 | 0.00 | 86 | 1013.9 |
| 20260507080357 | 12 | 178 | 1.6 | 4.8 | 0.00 | 0.79 | 0.00 | 85 | 1013.9 |
| 20260507080304 | 12 | 295 | 1.6 | 4.8 | 0.00 | 0.79 | 0.00 | 85 | 1013.9 |
| 20260507080224 | 12 | 319 | 1.6 | 4.8 | 0.00 | 0.79 | 0.00 | 84 | 1013.9 |
| 20260507080145 | 12 | 298 | 1.6 | 4.8 | 0.00 | 0.79 | 0.00 | 84 | 1013.9 |
| 20260507075919 | 12 | 309 | 3.2 | 4.8 | 0.00 | 0.79 | 0.00 | 85 | 1013.9 |
| 20260507075837 | 12 | 309 | 3.2 | 4.8 | 0.00 | 0.79 | 0.00 | 85 | 1013.9 |
| 20260507075503 | 12 | 265 | 1.6 | 4.8 | 0.00 | 0.79 | 0.00 | 87 | 1013.8 |
| 20260507075449 | 11 | 74 | 3.2 | 6.4 | 0.00 | 0.79 | 0.00 | 94 | 1013.8 |
| 20260507075402 | 12 | 221 | 1.6 | 4.8 | 0.00 | 0.79 | 0.00 | 87 | 1013.9 |
| 20260507075315 | 10 | 115 | 3.2 | 6.4 | 0.00 | 0.79 | 0.00 | 94 | 1013.9 |
| 20260507075306 | 12 | 267 | 3.2 | 4.8 | 0.00 | 0.79 | 0.00 | 87 | 1013.8 |
| 20260507075200 | 12 | 227 | 3.2 | 4.8 | 0.00 | 0.79 | 0.00 | 87 | 1013.9 |
| 20260507075058 | 12 | 236 | 1.6 | 4.8 | 0.00 | 0.79 | 0.00 | 87 | 1013.8 |
| 20260507075030 | 10 | 115 | 1.6 | 4.8 | 0.00 | 0.79 | 0.00 | 94 | 1013.8 |
| 20260507074957 | 12 | 215 | 1.6 | 4.8 | 0.00 | 0.79 | 0.00 | 87 | 1013.8 |
| 20260507074855 | 12 | 9 | 1.6 | 4.8 | 0.00 | 0.79 | 0.00 | 87 | 1013.8 |
| 20260507074756 | 12 | 205 | 1.6 | 4.8 | 0.00 | 0.79 | 0.00 | 88 | 1013.8 |
| 20260507074717 | 12 | 51 | 3.2 | 4.8 | 0.00 | 0.79 | 0.00 | 89 | 1013.9 |
| 20260507074636 | 11 | 161 | 3.2 | 4.8 | 0.00 | 0.79 | 0.00 | 90 | 1013.9 |
| 20260507074555 | 11 | 309 | 3.2 | 4.8 | 0.00 | 0.79 | 0.00 | 90 | 1013.9 |
| 20260507074506 | 11 | 126 | 3.2 | 4.8 | 0.00 | 0.79 | 0.00 | 91 | 1013.8 |
| 20260507074423 | 11 | 247 | 3.2 | 4.8 | 0.00 | 0.79 | 0.00 | 90 | 1013.8 |
| 20260507074342 | 11 | 83 | 3.2 | 4.8 | 0.00 | 0.79 | 0.00 | 91 | 1013.8 |
| 20260507074119 | 11 | 93 | 1.6 | 4.8 | 0.00 | 0.79 | 0.00 | 91 | 1013.9 |
| 20260507074030 | 11 | 146 | 1.6 | 4.8 | 0.00 | 0.79 | 0.00 | 93 | 1013.8 |
| 20260507073626 | 11 | 205 | 1.6 | 6.4 | 0.00 | 0.79 | 0.00 | 94 | 1013.8 |
| 20260507073544 | 11 | 153 | 3.2 | 6.4 | 0.00 | 0.79 | 0.00 | 94 | 1013.8 |
| 20260507073455 | 11 | 123 | 3.2 | 6.4 | 0.00 | 0.79 | 0.00 | 94 | 1013.9 |
| 20260507073054 | 10 | 67 | 1.6 | 6.4 | 0.00 | 0.79 | 0.00 | 94 | 1013.8 |
| 20260507073012 | 10 | 126 | 1.6 | 6.4 | 0.00 | 0.79 | 0.00 | 94 | 1013.8 |
| 20260507072803 | 10 | 119 | 1.6 | 6.4 | 0.00 | 0.79 | 0.00 | 94 | 1013.8 |
| 20260507072725 | 10 | 178 | 3.2 | 6.4 | 0.00 | 0.79 | 0.00 | 94 | 1013.8 |
| 20260507072622 | 10 | 67 | 4.8 | 6.4 | 0.00 | 0.79 | 0.00 | 94 | 1013.8 |
| 20260507072526 | 10 | 105 | 3.2 | 6.4 | 0.00 | 0.79 | 0.00 | 94 | 1013.8 |
| 20260507072443 | 10 | 93 | 3.2 | 4.8 | 0.00 | 0.79 | 0.00 | 94 | 1013.8 |
| 20260507072356 | 10 | 126 | 3.2 | 4.8 | 0.00 | 0.79 | 0.00 | 94 | 1013.8 |
| 20260507072152 | 10 | 178 | 3.2 | 6.4 | 0.00 | 0.79 | 0.00 | 94 | 1013.8 |
| 20260507072113 | 10 | 59 | 1.6 | 3.2 | 0.00 | 0.79 | 0.00 | 94 | 1013.8 |
| 20260507072013 | 10 | 153 | 1.6 | 3.2 | 0.00 | 0.79 | 0.00 | 94 | 1013.8 |
| 20260507071918 | 10 | 61 | 1.6 | 4.8 | 0.00 | 0.79 | 0.00 | 94 | 1013.8 |
| 20260507071829 | 10 | 110 | 1.6 | 4.8 | 0.00 | 0.79 | 0.00 | 94 | 1013.7 |
| 20260507071748 | 10 | 137 | 1.6 | 4.8 | 0.00 | 0.79 | 0.00 | 94 | 1013.8 |
| 20260507071510 | 10 | 161 | 1.6 | 6.4 | 0.00 | 0.79 | 0.00 | 94 | 1013.8 |
| 20260507071406 | 10 | 129 | 1.6 | 6.4 | 0.00 | 0.79 | 0.00 | 94 | 1013.8 |
| 20260507071305 | 10 | 119 | 1.6 | 6.4 | 0.00 | 0.79 | 0.00 | 94 | 1013.8 |
| 20260507071223 | 10 | 116 | 1.6 | 6.4 | 0.00 | 0.79 | 0.00 | 94 | 1013.8 |
| 20260507071141 | 10 | 153 | 3.2 | 6.4 | 0.00 | 0.79 | 0.00 | 94 | 1013.8 |
| 20260507071104 | 10 | 153 | 3.2 | 6.4 | 0.00 | 0.79 | 0.00 | 94 | 1013.9 |
| 20260507070836 | 10 | 168 | 3.2 | 6.4 | 0.00 | 0.79 | 0.00 | 94 | 1013.8 |
| 20260507070754 | 10 | 193 | 1.6 | 6.4 | 0.00 | 0.79 | 0.00 | 94 | 1013.8 |
| 20260507070553 | 10 | 178 | 1.6 | 6.4 | 0.00 | 0.79 | 0.00 | 94 | 1013.8 |
| 20260507070449 | 10 | 165 | 3.2 | 6.4 | 0.00 | 0.79 | 0.00 | 94 | 1013.8 |
| 20260507070400 | 9 | 168 | 3.2 | 6.4 | 0.00 | 0.79 | 0.00 | 94 | 1013.8 |
| 20260507070306 | 9 | 188 | 1.6 | 6.4 | 0.00 | 0.79 | 0.00 | 94 | 1013.8 |
| 20260507070213 | 9 | 178 | 1.6 | 4.8 | 0.00 | 0.79 | 0.00 | 94 | 1013.8 |
| 20260507070130 | 9 | 178 | 1.6 | 4.8 | 0.00 | 0.79 | 0.00 | 94 | 1013.9 |
| 20260507070024 | 9 | 178 | 1.6 | 4.8 | 0.00 | 0.79 | 0.00 | 94 | 1013.8 |
| 20260507065740 | 9 | 178 | 1.6 | 3.2 | 0.00 | 0.79 | 0.00 | 94 | 1013.9 |
| 20260507065713 | 9 | 171 | 1.6 | 3.2 | 0.00 | 0.79 | 0.00 | 94 | 1013.9 |
| 20260507065648 | 9 | 212 | 1.6 | 3.2 | 0.00 | 0.79 | 0.00 | 94 | 1013.8 |
| 20260507065608 | 9 | 178 | 1.6 | 3.2 | 0.00 | 0.79 | 0.00 | 94 | 1013.9 |
| 20260507065524 | 9 | 221 | 1.6 | 3.2 | 0.00 | 0.79 | 0.00 | 94 | 1013.9 |
| 20260507065235 | 9 | 165 | 1.6 | 3.2 | 0.00 | 0.79 | 0.00 | 94 | 1013.9 |
| 20260507065134 | 9 | 178 | 1.6 | 3.2 | 0.00 | 0.79 | 0.00 | 94 | 1013.9 |
| 20260507065039 | 9 | 137 | 1.6 | 3.2 | 0.00 | 0.79 | 0.00 | 94 | 1013.8 |
| 20260507064932 | 9 | 161 | 1.6 | 3.2 | 0.00 | 0.79 | 0.00 | 94 | 1013.9 |
| 20260507064830 | 8 | 123 | 1.6 | 3.2 | 0.00 | 0.79 | 0.00 | 94 | 1014.0 |
| 20260507064729 | 8 | 196 | 0.0 | 3.2 | 0.00 | 0.79 | 0.00 | 94 | 1013.8 |
| 20260507064629 | 8 | 265 | 0.0 | 3.2 | 0.00 | 0.79 | 0.00 | 94 | 1013.9 |
| 20260507064527 | 8 | 93 | 0.0 | 3.2 | 0.00 | 0.79 | 0.00 | 94 | 1013.8 |
| 20260507064424 | 8 | 205 | 0.0 | 3.2 | 0.00 | 0.79 | 0.00 | 94 | 1013.8 |
| 20260507064324 | 8 | 153 | 0.0 | 3.2 | 0.00 | 0.79 | 0.00 | 94 | 1013.8 |
| 20260507064230 | 8 | 93 | 1.6 | 3.2 | 0.00 | 0.79 | 0.00 | 94 | 1014.0 |
| 20260507064220 | 8 | 51 | 0.0 | 3.2 | 0.00 | 0.79 | 0.00 | 94 | 1013.8 |
| 20260507064121 | 8 | 153 | 0.0 | 3.2 | 0.00 | 0.79 | 0.00 | 94 | 1013.8 |
| 20260507064020 | 8 | 137 | 0.0 | 3.2 | 0.00 | 0.79 | 0.00 | 94 | 1013.9 |
| 20260507063918 | 8 | 126 | 1.6 | 3.2 | 0.00 | 0.79 | 0.00 | 94 | 1014.0 |
| 20260507063817 | 8 | 59 | 1.6 | 3.2 | 0.00 | 0.79 | 0.00 | 94 | 1013.9 |
| 20260507063728 | 8 | 76 | 1.6 | 3.2 | 0.00 | 0.79 | 0.00 | 94 | 1013.9 |
| 20260507063647 | 8 | 9 | 1.6 | 3.2 | 0.00 | 0.79 | 0.00 | 94 | 1013.9 |
| 20260507063607 | 8 | 301 | 0.0 | 3.2 | 0.00 | 0.79 | 0.00 | 94 | 1013.9 |
| 20260507063410 | 8 | 196 | 0.0 | 3.2 | 0.00 | 0.79 | 0.00 | 94 | 1013.9 |
| 20260507063308 | 8 | 205 | 0.0 | 3.2 | 0.00 | 0.79 | 0.00 | 94 | 1013.9 |
| 20260507063208 | 8 | 282 | 0.0 | 3.2 | 0.00 | 0.79 | 0.00 | 94 | 1013.9 |
| 20260507063148 | 7 | 221 | 0.0 | 3.2 | 0.00 | 0.79 | 0.00 | 93 | 1014.0 |
| 20260507063108 | 8 | 250 | 0.0 | 3.2 | 0.00 | 0.79 | 0.00 | 94 | 1013.9 |
| 20260507063008 | 8 | 265 | 0.0 | 3.2 | 0.00 | 0.79 | 0.00 | 94 | 1013.9 |
| 20260507062920 | 8 | 9 | 0.0 | 3.2 | 0.00 | 0.79 | 0.00 | 94 | 1013.9 |
| 20260507062837 | 8 | 137 | 0.0 | 3.2 | 0.00 | 0.79 | 0.00 | 94 | 1013.9 |
| 20260507062632 | 7 | 161 | 0.0 | 1.6 | 0.00 | 0.79 | 0.00 | 93 | 1014.0 |
| 20260507062556 | 8 | 111 | 1.6 | 3.2 | 0.00 | 0.79 | 0.00 | 94 | 1014.0 |
| 20260507062448 | 8 | 34 | 1.6 | 3.2 | 0.00 | 0.79 | 0.00 | 94 | 1013.9 |
| 20260507062349 | 8 | 9 | 1.6 | 3.2 | 0.00 | 0.79 | 0.00 | 94 | 1014.0 |
| 20260507062340 | 7 | 93 | 0.0 | 1.6 | 0.00 | 0.79 | 0.00 | 93 | 1014.0 |
| 20260507062246 | 8 | 9 | 1.6 | 3.2 | 0.00 | 0.79 | 0.00 | 94 | 1014.0 |
| 20260507062214 | 7 | 153 | 0.0 | 1.6 | 0.00 | 0.79 | 0.00 | 93 | 1014.0 |
| 20260507062145 | 8 | 338 | 1.6 | 3.2 | 0.00 | 0.79 | 0.00 | 94 | 1014.0 |
| 20260507062049 | 7 | 51 | 0.0 | 1.6 | 0.00 | 0.79 | 0.00 | 93 | 1014.0 |
| 20260507062044 | 8 | 338 | 1.6 | 3.2 | 0.00 | 0.79 | 0.00 | 94 | 1014.0 |
| 20260507061942 | 7 | 9 | 1.6 | 3.2 | 0.00 | 0.79 | 0.00 | 93 | 1014.0 |
| 20260507061844 | 7 | 282 | 0.0 | 3.2 | 0.00 | 0.79 | 0.00 | 93 | 1014.0 |
| 20260507061742 | 7 | 309 | 0.0 | 3.2 | 0.00 | 0.79 | 0.00 | 93 | 1013.9 |
| 20260507061656 | 7 | 265 | 1.6 | 3.2 | 0.00 | 0.79 | 0.00 | 93 | 1014.0 |
| 20260507061620 | 7 | 178 | 1.6 | 3.2 | 0.00 | 0.79 | 0.00 | 93 | 1014.0 |
| 20260507061340 | 7 | 178 | 0.0 | 3.2 | 0.00 | 0.79 | 0.00 | 93 | 1014.0 |
| 20260507061235 | 7 | 221 | 0.0 | 3.2 | 0.00 | 0.79 | 0.00 | 93 | 1014.0 |
| 20260507061133 | 7 | 205 | 0.0 | 3.2 | 0.00 | 0.79 | 0.00 | 93 | 1013.9 |
| 20260507061041 | 7 | 221 | 0.0 | 3.2 | 0.00 | 0.79 | 0.00 | 93 | 1013.9 |
| 20260507061000 | 7 | 178 | 0.0 | 3.2 | 0.00 | 0.79 | 0.00 | 93 | 1014.0 |
| 20260507060907 | 7 | 146 | 0.0 | 3.2 | 0.00 | 0.79 | 0.00 | 93 | 1013.9 |
| 20260507060634 | 7 | 137 | 1.6 | 3.2 | 0.00 | 0.79 | 0.00 | 93 | 1013.7 |
| 20260507060626 | 7 | 161 | 1.6 | 3.2 | 0.00 | 0.79 | 0.00 | 93 | 1013.9 |
| 20260507060527 | 7 | 178 | 1.6 | 3.2 | 0.00 | 0.79 | 0.00 | 93 | 1014.0 |
| 20260507060425 | 7 | 168 | 1.6 | 3.2 | 0.00 | 0.79 | 0.00 | 93 | 1013.9 |
| 20260507060341 | 7 | 178 | 1.6 | 1.6 | 0.00 | 0.79 | 0.00 | 93 | 1014.0 |
| 20260507060259 | 7 | 196 | 0.0 | 1.6 | 0.00 | 0.79 | 0.00 | 93 | 1013.9 |
| 20260507060058 | 7 | 153 | 0.0 | 1.6 | 0.00 | 0.79 | 0.00 | 93 | 1013.6 |
| 20260507060019 | 7 | 111 | 1.6 | 1.6 | 0.00 | 0.79 | 0.00 | 93 | 1013.9 |
| 20260507055915 | 7 | 93 | 1.6 | 1.6 | 0.00 | 0.79 | 0.00 | 93 | 1013.9 |
| 20260507055813 | 7 | 126 | 1.6 | 1.6 | 0.00 | 0.79 | 0.00 | 93 | 1013.9 |
| 20260507055739 | 7 | 137 | 0.0 | 4.8 | 0.00 | 0.79 | 0.00 | 93 | 1013.7 |
| 20260507055707 | 7 | 93 | 0.0 | 1.6 | 0.00 | 0.79 | 0.00 | 93 | 1014.0 |
| 20260507055616 | 7 | 137 | 0.0 | 1.6 | 0.00 | 0.79 | 0.00 | 93 | 1013.9 |
| 20260507055537 | 7 | 67 | 0.0 | 1.6 | 0.00 | 0.79 | 0.00 | 93 | 1014.0 |
| 20260507055259 | 7 | 137 | 0.0 | 1.6 | 0.00 | 0.79 | 0.00 | 93 | 1014.0 |
| 20260507055228 | 7 | 137 | 0.0 | 1.6 | 0.00 | 0.79 | 0.00 | 93 | 1014.0 |
| 20260507054953 | 7 | 153 | 0.0 | 1.6 | 0.00 | 0.79 | 0.00 | 93 | 1014.0 |
| 20260507054919 | 7 | 137 | 0.0 | 1.6 | 0.00 | 0.79 | 0.00 | 93 | 1014.0 |
| 20260507054836 | 7 | 137 | 0.0 | 1.6 | 0.00 | 0.79 | 0.00 | 93 | 1013.9 |
| 20260507054619 | 7 | 51 | 0.0 | 1.6 | 0.00 | 0.79 | 0.00 | 93 | 1014.0 |
| 20260507054431 | 7 | 51 | 0.0 | 1.6 | 0.00 | 0.79 | 0.00 | 93 | 1013.9 |
| 20260507054317 | 7 | 51 | 0.0 | 1.6 | 0.00 | 0.79 | 0.00 | 93 | 1013.9 |
| 20260507054230 | 7 | 51 | 0.0 | 1.6 | 0.00 | 0.79 | 0.00 | 93 | 1014.0 |
| 20260507054153 | 7 | 9 | 0.0 | 1.6 | 0.00 | 0.79 | 0.00 | 93 | 1013.9 |
| 20260507054017 | 7 | 334 | 0.0 | 3.2 | 0.00 | 0.79 | 0.00 | 93 | 1013.9 |
| 20260507053917 | 7 | 319 | 0.0 | 3.2 | 0.00 | 0.79 | 0.00 | 93 | 1013.9 |
| 20260507053813 | 7 | 26 | 0.0 | 3.2 | 0.00 | 0.79 | 0.00 | 93 | 1013.9 |
| 20260507053712 | 7 | 153 | 0.0 | 3.2 | 0.00 | 0.79 | 0.00 | 93 | 1013.9 |
| 20260507053651 | 7 | 93 | 1.6 | 3.2 | 0.00 | 0.79 | 0.00 | 93 | 1013.5 |
| 20260507053616 | 7 | 153 | 0.0 | 3.2 | 0.00 | 0.79 | 0.00 | 93 | 1013.9 |
| 20260507053524 | 7 | 153 | 0.0 | 3.2 | 0.00 | 0.79 | 0.00 | 93 | 1013.9 |
| 20260507053446 | 7 | 111 | 0.0 | 3.2 | 0.00 | 0.79 | 0.00 | 93 | 1013.9 |
| 20260507053400 | 7 | 93 | 1.6 | 3.2 | 0.00 | 0.79 | 0.00 | 93 | 1013.9 |
| 20260507053204 | 7 | 205 | 1.6 | 3.2 | 0.00 | 0.79 | 0.00 | 93 | 1014.0 |
| 20260507053102 | 7 | 165 | 1.6 | 3.2 | 0.00 | 0.79 | 0.00 | 93 | 1013.9 |
| 20260507053000 | 7 | 168 | 1.6 | 1.6 | 0.00 | 0.79 | 0.00 | 93 | 1013.9 |
| 20260507052859 | 7 | 165 | 1.6 | 1.6 | 0.00 | 0.79 | 0.00 | 93 | 1013.9 |
| 20260507052759 | 7 | 165 | 1.6 | 3.2 | 0.00 | 0.79 | 0.00 | 93 | 1013.9 |
| 20260507052659 | 7 | 165 | 0.0 | 3.2 | 0.00 | 0.79 | 0.00 | 93 | 1013.8 |
| 20260507052557 | 7 | 161 | 0.0 | 3.2 | 0.00 | 0.79 | 0.00 | 93 | 1013.8 |
| 20260507052452 | 7 | 178 | 0.0 | 3.2 | 0.00 | 0.79 | 0.00 | 93 | 1013.8 |
| 20260507052414 | 7 | 153 | 0.0 | 3.2 | 0.00 | 0.79 | 0.00 | 93 | 1013.8 |
| 20260507052326 | 7 | 161 | 0.0 | 3.2 | 0.00 | 0.79 | 0.00 | 93 | 1013.8 |
| 20260507052123 | 8 | 9 | 0.0 | 1.6 | 0.00 | 0.79 | 0.00 | 93 | 1013.5 |
| 20260507052051 | 7 | 137 | 1.6 | 3.2 | 0.00 | 0.79 | 0.00 | 93 | 1013.8 |
| 20260507051950 | 7 | 161 | 1.6 | 3.2 | 0.00 | 0.79 | 0.00 | 93 | 1013.7 |
| 20260507051849 | 7 | 165 | 0.0 | 3.2 | 0.00 | 0.79 | 0.00 | 93 | 1013.7 |
| 20260507051805 | 7 | 153 | 0.0 | 1.6 | 0.00 | 0.79 | 0.00 | 93 | 1013.7 |
| 20260507051725 | 7 | 153 | 0.0 | 1.6 | 0.00 | 0.79 | 0.00 | 93 | 1013.7 |
| 20260507051443 | 7 | 221 | 1.6 | 1.6 | 0.00 | 0.79 | 0.00 | 93 | 1013.7 |
| 20260507051341 | 7 | 291 | 1.6 | 1.6 | 0.00 | 0.79 | 0.00 | 93 | 1013.7 |
| 20260507051242 | 7 | 309 | 1.6 | 3.2 | 0.00 | 0.79 | 0.00 | 93 | 1013.7 |
| 20260507051227 | 8 | 119 | 0.0 | 3.2 | 0.00 | 0.79 | 0.00 | 93 | 1013.4 |
| 20260507051132 | 7 | 325 | 0.0 | 4.8 | 0.00 | 0.79 | 0.00 | 93 | 1013.7 |
| 20260507051037 | 7 | 265 | 0.0 | 4.8 | 0.00 | 0.79 | 0.00 | 93 | 1013.7 |
| 20260507051008 | 8 | 105 | 0.0 | 1.6 | 0.00 | 0.79 | 0.00 | 93 | 1013.4 |
| 20260507050931 | 7 | 161 | 0.0 | 4.8 | 0.00 | 0.79 | 0.00 | 93 | 1013.7 |
| 20260507050829 | 7 | 137 | 0.0 | 4.8 | 0.00 | 0.79 | 0.00 | 93 | 1013.7 |
| 20260507050740 | 7 | 93 | 0.0 | 4.8 | 0.00 | 0.79 | 0.00 | 93 | 1013.7 |
| 20260507050703 | 7 | 153 | 0.0 | 4.8 | 0.00 | 0.79 | 0.00 | 93 | 1013.7 |
| 20260507050504 | 8 | 126 | 0.0 | 3.2 | 0.00 | 0.79 | 0.00 | 93 | 1013.4 |
| 20260507050426 | 7 | 161 | 1.6 | 4.8 | 0.00 | 0.79 | 0.00 | 93 | 1013.7 |
| 20260507050415 | 8 | 137 | 1.6 | 3.2 | 0.00 | 0.79 | 0.00 | 93 | 1013.4 |
| 20260507050325 | 7 | 161 | 3.2 | 4.8 | 0.00 | 0.79 | 0.00 | 93 | 1013.8 |
| 20260507050223 | 7 | 178 | 1.6 | 4.8 | 0.00 | 0.79 | 0.00 | 93 | 1013.7 |
| 20260507050159 | 8 | 93 | 0.0 | 3.2 | 0.00 | 0.79 | 0.00 | 93 | 1013.4 |
| 20260507050134 | 7 | 168 | 1.6 | 4.8 | 0.00 | 0.79 | 0.00 | 93 | 1013.8 |
| 20260507050043 | 7 | 165 | 3.2 | 4.8 | 0.00 | 0.79 | 0.00 | 93 | 1013.7 |
| 20260507050000 | 7 | 171 | 3.2 | 4.8 | 0.00 | 0.79 | 0.00 | 93 | 1013.7 |
| 20260507045717 | 7 | 171 | 1.6 | 3.2 | 0.00 | 0.79 | 0.00 | 93 | 1013.6 |
| 20260507045616 | 7 | 158 | 1.6 | 3.2 | 0.00 | 0.79 | 0.00 | 93 | 1013.7 |
| 20260507045516 | 7 | 171 | 1.6 | 4.8 | 0.00 | 0.79 | 0.00 | 93 | 1013.7 |
| 20260507045432 | 7 | 161 | 0.0 | 4.8 | 0.00 | 0.79 | 0.00 | 93 | 1013.6 |
| 20260507045349 | 7 | 153 | 0.0 | 4.8 | 0.00 | 0.79 | 0.00 | 93 | 1013.6 |
| 20260507045103 | 7 | 178 | 0.0 | 4.8 | 0.00 | 0.79 | 0.00 | 93 | 1013.6 |
| 20260507045006 | 7 | 137 | 1.6 | 4.8 | 0.00 | 0.79 | 0.00 | 93 | 1013.6 |
| 20260507044936 | 8 | 126 | 1.6 | 1.6 | 0.00 | 0.79 | 0.00 | 93 | 1013.4 |
| 20260507044905 | 7 | 137 | 1.6 | 4.8 | 0.00 | 0.79 | 0.00 | 93 | 1013.6 |
| 20260507044802 | 7 | 111 | 3.2 | 4.8 | 0.00 | 0.79 | 0.00 | 93 | 1013.6 |
| 20260507044658 | 7 | 103 | 3.2 | 4.8 | 0.00 | 0.79 | 0.00 | 93 | 1013.6 |
| 20260507044612 | 8 | 161 | 0.0 | 1.6 | 0.00 | 0.79 | 0.00 | 93 | 1013.5 |
| 20260507044600 | 7 | 93 | 3.2 | 4.8 | 0.00 | 0.79 | 0.00 | 93 | 1013.6 |
| 20260507044457 | 7 | 108 | 3.2 | 3.2 | 0.00 | 0.79 | 0.00 | 93 | 1013.6 |
| 20260507044404 | 7 | 103 | 1.6 | 3.2 | 0.00 | 0.79 | 0.00 | 93 | 1013.5 |
| 20260507044317 | 7 | 103 | 1.6 | 3.2 | 0.00 | 0.79 | 0.00 | 93 | 1013.5 |
| 20260507044234 | 7 | 103 | 1.6 | 3.2 | 0.00 | 0.79 | 0.00 | 93 | 1013.5 |
| 20260507044013 | 7 | 80 | 0.0 | 3.2 | 0.00 | 0.79 | 0.00 | 93 | 1013.5 |
| 20260507043937 | 7 | 93 | 0.0 | 1.6 | 0.00 | 0.79 | 0.00 | 93 | 1013.5 |
| 20260507043851 | 7 | 9 | 0.0 | 3.2 | 0.00 | 0.79 | 0.00 | 93 | 1013.5 |
| 20260507043818 | 7 | 9 | 0.0 | 3.2 | 0.00 | 0.79 | 0.00 | 93 | 1013.5 |
| 20260507043446 | 7 | 9 | 0.0 | 3.2 | 0.00 | 0.79 | 0.00 | 93 | 1013.5 |
| 20260507043341 | 7 | 9 | 0.0 | 3.2 | 0.00 | 0.79 | 0.00 | 93 | 1013.5 |
| 20260507043243 | 8 | 93 | 0.0 | 3.2 | 0.00 | 0.79 | 0.00 | 93 | 1013.6 |
| 20260507043230 | 7 | 9 | 0.0 | 3.2 | 0.00 | 0.79 | 0.00 | 93 | 1013.5 |
| 20260507043214 | 8 | 137 | 0.0 | 3.2 | 0.00 | 0.79 | 0.00 | 93 | 1013.6 |
| 20260507043125 | 7 | 325 | 0.0 | 3.2 | 0.00 | 0.79 | 0.00 | 93 | 1013.5 |
| 20260507043020 | 7 | 9 | 1.6 | 3.2 | 0.00 | 0.79 | 0.00 | 93 | 1013.5 |
| 20260507042917 | 7 | 9 | 1.6 | 3.2 | 0.00 | 0.79 | 0.00 | 93 | 1013.5 |
| 20260507042817 | 7 | 9 | 1.6 | 3.2 | 0.00 | 0.79 | 0.00 | 93 | 1013.6 |
| 20260507042801 | 8 | 137 | 1.6 | 3.2 | 0.00 | 0.79 | 0.00 | 93 | 1013.7 |
| 20260507042716 | 7 | 321 | 1.6 | 3.2 | 0.00 | 0.79 | 0.00 | 92 | 1013.5 |
| 20260507042619 | 7 | 319 | 0.0 | 1.6 | 0.00 | 0.79 | 0.00 | 93 | 1013.6 |
| 20260507042517 | 7 | 51 | 0.0 | 1.6 | 0.00 | 0.79 | 0.00 | 93 | 1013.5 |
| 20260507042414 | 7 | 51 | 0.0 | 1.6 | 0.00 | 0.79 | 0.00 | 93 | 1013.5 |
| 20260507042312 | 7 | 51 | 0.0 | 1.6 | 0.00 | 0.79 | 0.00 | 93 | 1013.6 |
| 20260507042256 | 8 | 137 | 0.0 | 1.6 | 0.00 | 0.79 | 0.00 | 93 | 1013.6 |
| 20260507042235 | 8 | 161 | 0.0 | 1.6 | 0.00 | 0.79 | 0.00 | 93 | 1013.6 |
| 20260507042207 | 7 | 51 | 0.0 | 1.6 | 0.00 | 0.79 | 0.00 | 93 | 1013.6 |
| 20260507042119 | 8 | 178 | 1.6 | 1.6 | 0.00 | 0.79 | 0.00 | 93 | 1013.7 |
| 20260507042057 | 7 | 51 | 0.0 | 1.6 | 0.00 | 0.79 | 0.00 | 93 | 1013.6 |
| 20260507042035 | 8 | 146 | 1.6 | 1.6 | 0.00 | 0.79 | 0.00 | 93 | 1013.7 |
| 20260507041943 | 7 | 51 | 0.0 | 1.6 | 0.00 | 0.79 | 0.00 | 93 | 1013.6 |
| 20260507041847 | 7 | 265 | 1.6 | 1.6 | 0.00 | 0.79 | 0.00 | 93 | 1013.6 |
| 20260507041836 | 8 | 126 | 0.0 | 1.6 | 0.00 | 0.79 | 0.00 | 93 | 1013.7 |
| 20260507041746 | 7 | 291 | 1.6 | 1.6 | 0.00 | 0.79 | 0.00 | 93 | 1013.6 |
| 20260507041729 | 8 | 161 | 0.0 | 1.6 | 0.00 | 0.79 | 0.00 | 93 | 1013.7 |
| 20260507041644 | 7 | 265 | 0.0 | 1.6 | 0.00 | 0.79 | 0.00 | 93 | 1013.5 |
| 20260507041607 | 7 | 247 | 0.0 | 1.6 | 0.00 | 0.79 | 0.00 | 93 | 1013.6 |
| 20260507041523 | 7 | 178 | 0.0 | 1.6 | 0.00 | 0.79 | 0.00 | 93 | 1013.5 |
| 20260507041339 | 8 | 178 | 0.0 | 1.6 | 0.00 | 0.79 | 0.00 | 93 | 1013.6 |
| 20260507041251 | 8 | 178 | 0.0 | 1.6 | 0.00 | 0.79 | 0.00 | 93 | 1013.5 |
| 20260507041213 | 8 | 9 | 0.0 | 1.6 | 0.00 | 0.79 | 0.00 | 93 | 1013.6 |
| 20260507041025 | 8 | 178 | 1.6 | 1.6 | 0.00 | 0.79 | 0.00 | 93 | 1013.7 |
| 20260507040926 | 8 | 9 | 0.0 | 1.6 | 0.00 | 0.79 | 0.00 | 93 | 1013.5 |
| 20260507040826 | 8 | 9 | 0.0 | 1.6 | 0.00 | 0.79 | 0.00 | 93 | 1013.5 |
| 20260507040724 | 8 | 282 | 0.0 | 1.6 | 0.00 | 0.79 | 0.00 | 93 | 1013.4 |
| 20260507040707 | 9 | 153 | 1.6 | 3.2 | 0.00 | 0.79 | 0.00 | 93 | 1013.8 |
| 20260507040623 | 8 | 282 | 0.0 | 1.6 | 0.00 | 0.79 | 0.00 | 93 | 1013.4 |
| 20260507040519 | 8 | 282 | 0.0 | 1.6 | 0.00 | 0.79 | 0.00 | 93 | 1013.5 |
| 20260507040431 | 9 | 168 | 1.6 | 4.8 | 0.00 | 0.79 | 0.00 | 93 | 1013.8 |
| 20260507040418 | 8 | 282 | 0.0 | 1.6 | 0.00 | 0.79 | 0.00 | 93 | 1013.5 |
| 20260507040318 | 8 | 309 | 0.0 | 1.6 | 0.00 | 0.79 | 0.00 | 93 | 1013.4 |
| 20260507040219 | 8 | 93 | 0.0 | 1.6 | 0.00 | 0.79 | 0.00 | 93 | 1013.4 |
| 20260507040129 | 8 | 93 | 0.0 | 1.6 | 0.00 | 0.79 | 0.00 | 93 | 1013.4 |
| 20260507040040 | 8 | 93 | 0.0 | 1.6 | 0.00 | 0.79 | 0.00 | 93 | 1013.4 |
| 20260507035856 | 8 | 93 | 0.0 | 3.2 | 0.00 | 0.79 | 0.00 | 93 | 1013.4 |
| 20260507035754 | 8 | 178 | 0.0 | 3.2 | 0.00 | 0.79 | 0.00 | 93 | 1013.4 |
| 20260507035641 | 8 | 153 | 0.0 | 3.2 | 0.00 | 0.79 | 0.00 | 93 | 1013.4 |
| 20260507035541 | 8 | 178 | 0.0 | 3.2 | 0.00 | 0.79 | 0.00 | 93 | 1013.4 |
| 20260507035501 | 8 | 137 | 0.0 | 3.2 | 0.00 | 0.79 | 0.00 | 93 | 1013.4 |
| 20260507035428 | 8 | 137 | 1.6 | 3.2 | 0.00 | 0.79 | 0.00 | 93 | 1013.4 |
| 20260507035138 | 8 | 93 | 0.0 | 3.2 | 0.00 | 0.79 | 0.00 | 93 | 1013.4 |
| 20260507035037 | 8 | 126 | 1.6 | 3.2 | 0.00 | 0.79 | 0.00 | 93 | 1013.4 |
| 20260507034957 | 8 | 72 | 1.6 | 3.2 | 0.00 | 0.79 | 0.00 | 93 | 1013.4 |
| 20260507034903 | 8 | 111 | 1.6 | 3.2 | 0.00 | 0.79 | 0.00 | 93 | 1013.4 |
| 20260507034816 | 8 | 119 | 1.6 | 3.2 | 0.00 | 0.79 | 0.00 | 93 | 1013.4 |
| 20260507034621 | 9 | 178 | 3.2 | 3.2 | 0.00 | 0.79 | 0.00 | 93 | 1013.8 |
| 20260507034524 | 8 | 111 | 0.0 | 1.6 | 0.00 | 0.79 | 0.00 | 93 | 1013.4 |
| 20260507034454 | 9 | 178 | 1.6 | 1.6 | 0.00 | 0.79 | 0.00 | 93 | 1013.9 |
| 20260507034424 | 8 | 119 | 0.0 | 1.6 | 0.00 | 0.79 | 0.00 | 93 | 1013.4 |
| 20260507034335 | 8 | 161 | 0.0 | 3.2 | 0.00 | 0.79 | 0.00 | 93 | 1013.4 |
| 20260507034234 | 8 | 161 | 0.0 | 3.2 | 0.00 | 0.79 | 0.00 | 93 | 1013.5 |
| 20260507034158 | 8 | 153 | 1.6 | 3.2 | 0.00 | 0.79 | 0.00 | 93 | 1013.4 |
| 20260507034120 | 8 | 161 | 1.6 | 3.2 | 0.00 | 0.79 | 0.00 | 93 | 1013.5 |
| 20260507033849 | 8 | 119 | 0.0 | 3.2 | 0.00 | 0.79 | 0.00 | 93 | 1013.4 |
| 20260507033625 | 8 | 93 | 1.6 | 3.2 | 0.00 | 0.79 | 0.00 | 93 | 1013.4 |
| 20260507033541 | 8 | 111 | 1.6 | 3.2 | 0.00 | 0.79 | 0.00 | 93 | 1013.4 |
| 20260507033501 | 8 | 126 | 1.6 | 3.2 | 0.00 | 0.79 | 0.00 | 93 | 1013.4 |
| 20260507033414 | 8 | 111 | 0.0 | 3.2 | 0.00 | 0.79 | 0.00 | 93 | 1013.5 |
| 20260507033140 | 8 | 119 | 1.6 | 3.2 | 0.00 | 0.79 | 0.00 | 93 | 1013.4 |
| 20260507033055 | 8 | 137 | 1.6 | 3.2 | 0.00 | 0.79 | 0.00 | 93 | 1013.5 |
| 20260507032854 | 8 | 108 | 1.6 | 3.2 | 0.00 | 0.79 | 0.00 | 93 | 1013.4 |
| 20260507032829 | 9 | 309 | 0.0 | 1.6 | 0.00 | 0.79 | 0.00 | 93 | 1013.9 |
| 20260507032752 | 8 | 137 | 0.0 | 3.2 | 0.00 | 0.79 | 0.00 | 93 | 1013.5 |
| 20260507032646 | 8 | 161 | 0.0 | 3.2 | 0.00 | 0.79 | 0.00 | 93 | 1013.4 |
| 20260507032603 | 8 | 178 | 0.0 | 3.2 | 0.00 | 0.79 | 0.00 | 93 | 1013.5 |
| 20260507032524 | 8 | 137 | 1.6 | 3.2 | 0.00 | 0.79 | 0.00 | 93 | 1013.5 |
| 20260507032445 | 8 | 126 | 1.6 | 3.2 | 0.00 | 0.79 | 0.00 | 93 | 1013.5 |
| 20260507032241 | 8 | 111 | 1.6 | 3.2 | 0.00 | 0.79 | 0.00 | 93 | 1013.5 |
| 20260507032141 | 8 | 119 | 1.6 | 3.2 | 0.00 | 0.79 | 0.00 | 93 | 1013.5 |
| 20260507032127 | 9 | 146 | 1.6 | 6.4 | 0.00 | 0.79 | 0.00 | 93 | 1014.0 |
| 20260507032036 | 8 | 126 | 1.6 | 3.2 | 0.00 | 0.79 | 0.00 | 93 | 1013.5 |
| 20260507031959 | 8 | 126 | 1.6 | 3.2 | 0.00 | 0.79 | 0.00 | 93 | 1013.5 |
| 20260507031917 | 8 | 111 | 1.6 | 3.2 | 0.00 | 0.79 | 0.00 | 93 | 1013.5 |
| 20260507031630 | 8 | 111 | 1.6 | 1.6 | 0.00 | 0.79 | 0.00 | 93 | 1013.4 |
| 20260507031529 | 8 | 108 | 1.6 | 1.6 | 0.00 | 0.79 | 0.00 | 93 | 1013.5 |
| 20260507031509 | 9 | 110 | 3.2 | 6.4 | 0.00 | 0.79 | 0.00 | 93 | 1014.0 |
| 20260507031427 | 8 | 126 | 1.6 | 1.6 | 0.00 | 0.79 | 0.00 | 93 | 1013.5 |
| 20260507031331 | 8 | 93 | 1.6 | 1.6 | 0.00 | 0.79 | 0.00 | 93 | 1013.5 |
| 20260507031225 | 8 | 137 | 1.6 | 1.6 | 0.00 | 0.79 | 0.00 | 93 | 1013.5 |
| 20260507031125 | 8 | 137 | 0.0 | 1.6 | 0.00 | 0.79 | 0.00 | 93 | 1013.5 |
| 20260507031032 | 8 | 161 | 0.0 | 1.6 | 0.00 | 0.79 | 0.00 | 93 | 1013.5 |
| 20260507030949 | 8 | 161 | 0.0 | 1.6 | 0.00 | 0.79 | 0.00 | 93 | 1013.5 |
| 20260507030741 | 9 | 193 | 3.2 | 6.4 | 0.00 | 0.79 | 0.00 | 93 | 1014.3 |
| 20260507030705 | 8 | 161 | 0.0 | 1.6 | 0.00 | 0.79 | 0.00 | 93 | 1013.5 |
| 20260507030651 | 9 | 178 | 3.2 | 6.4 | 0.00 | 0.79 | 0.00 | 93 | 1014.3 |
| 20260507030611 | 8 | 137 | 0.0 | 1.6 | 0.00 | 0.79 | 0.00 | 93 | 1013.5 |
| 20260507030531 | 8 | 153 | 0.0 | 1.6 | 0.00 | 0.79 | 0.00 | 93 | 1013.5 |
| 20260507030254 | 8 | 309 | 0.0 | 1.6 | 0.00 | 0.79 | 0.00 | 93 | 1013.5 |
| 20260507030213 | 8 | 309 | 0.0 | 1.6 | 0.00 | 0.79 | 0.00 | 93 | 1013.6 |
| 20260507030135 | 8 | 309 | 0.0 | 1.6 | 0.00 | 0.79 | 0.00 | 93 | 1013.6 |
| 20260507025946 | 8 | 119 | 0.0 | 1.6 | 0.00 | 0.79 | 0.00 | 93 | 1013.6 |
| 20260507025907 | 8 | 119 | 0.0 | 1.6 | 0.00 | 0.79 | 0.00 | 93 | 1013.6 |
| 20260507025830 | 8 | 119 | 0.0 | 1.6 | 0.00 | 0.79 | 0.00 | 93 | 1013.6 |
| 20260507025752 | 8 | 119 | 0.0 | 3.2 | 0.00 | 0.79 | 0.00 | 93 | 1013.6 |
| 20260507025413 | 9 | 247 | 0.0 | 1.6 | 0.00 | 0.79 | 0.00 | 93 | 1014.4 |
| 20260507025337 | 8 | 137 | 1.6 | 3.2 | 0.00 | 0.79 | 0.00 | 93 | 1013.6 |
| 20260507025237 | 8 | 93 | 1.6 | 3.2 | 0.00 | 0.79 | 0.00 | 93 | 1013.7 |
| 20260507025134 | 8 | 126 | 0.0 | 3.2 | 0.00 | 0.79 | 0.00 | 93 | 1013.6 |
| 20260507025034 | 8 | 137 | 0.0 | 3.2 | 0.00 | 0.79 | 0.00 | 93 | 1013.6 |
| 20260507025016 | 9 | 76 | 3.2 | 4.8 | 0.00 | 0.79 | 0.00 | 93 | 1014.4 |
| 20260507024933 | 8 | 137 | 0.0 | 3.2 | 0.00 | 0.79 | 0.00 | 93 | 1013.6 |
| 20260507024919 | 9 | 113 | 3.2 | 6.4 | 0.00 | 0.79 | 0.00 | 93 | 1014.4 |
| 20260507024832 | 8 | 93 | 0.0 | 3.2 | 0.00 | 0.79 | 0.00 | 93 | 1013.6 |
| 20260507024732 | 8 | 126 | 1.6 | 3.2 | 0.00 | 0.79 | 0.00 | 93 | 1013.6 |
| 20260507024629 | 8 | 137 | 1.6 | 3.2 | 0.00 | 0.79 | 0.00 | 93 | 1013.6 |
| 20260507024543 | 8 | 146 | 0.0 | 3.2 | 0.00 | 0.79 | 0.00 | 93 | 1013.6 |
| 20260507024503 | 8 | 93 | 0.0 | 3.2 | 0.00 | 0.79 | 0.00 | 93 | 1013.6 |
| 20260507024424 | 8 | 137 | 0.0 | 3.2 | 0.00 | 0.79 | 0.00 | 93 | 1013.6 |
| 20260507024344 | 8 | 119 | 1.6 | 3.2 | 0.00 | 0.79 | 0.00 | 93 | 1013.6 |
| 20260507024259 | 8 | 137 | 1.6 | 3.2 | 0.00 | 0.79 | 0.00 | 93 | 1013.6 |
| 20260507023918 | 8 | 126 | 0.0 | 3.2 | 0.00 | 0.79 | 0.00 | 93 | 1013.6 |
| 20260507023817 | 8 | 137 | 0.0 | 1.6 | 0.00 | 0.79 | 0.00 | 93 | 1013.6 |
| 20260507023758 | 9 | 119 | 1.6 | 3.2 | 0.00 | 0.79 | 0.00 | 93 | 1014.5 |
| 20260507023717 | 8 | 291 | 0.0 | 1.6 | 0.00 | 0.79 | 0.00 | 93 | 1013.6 |
| 20260507023617 | 8 | 291 | 0.0 | 1.6 | 0.00 | 0.79 | 0.00 | 93 | 1013.6 |
| 20260507023513 | 8 | 291 | 0.0 | 1.6 | 0.00 | 0.79 | 0.00 | 93 | 1013.6 |
| 20260507023458 | 9 | 126 | 1.6 | 3.2 | 0.00 | 0.79 | 0.00 | 93 | 1014.4 |
| 20260507023413 | 8 | 291 | 0.0 | 1.6 | 0.00 | 0.79 | 0.00 | 93 | 1013.6 |
| 20260507023349 | 9 | 119 | 1.6 | 6.4 | 0.00 | 0.79 | 0.00 | 93 | 1014.4 |
| 20260507023313 | 8 | 291 | 0.0 | 1.6 | 0.00 | 0.79 | 0.00 | 93 | 1013.6 |
| 20260507023252 | 9 | 129 | 1.6 | 6.4 | 0.00 | 0.79 | 0.00 | 93 | 1014.4 |
| 20260507023235 | 9 | 129 | 1.6 | 6.4 | 0.00 | 0.79 | 0.00 | 93 | 1014.4 |
| 20260507023213 | 8 | 9 | 0.0 | 1.6 | 0.00 | 0.79 | 0.00 | 93 | 1013.6 |
| 20260507023149 | 9 | 153 | 1.6 | 6.4 | 0.00 | 0.81 | 0.00 | 93 | 1014.4 |
| 20260507023111 | 8 | 9 | 0.0 | 1.6 | 0.00 | 0.79 | 0.00 | 93 | 1013.6 |
| 20260507023011 | 8 | 9 | 0.0 | 1.6 | 0.00 | 0.79 | 0.00 | 93 | 1013.6 |
| 20260507022946 | 9 | 165 | 3.2 | 3.2 | 0.00 | 0.81 | 0.00 | 93 | 1014.4 |
| 20260507022913 | 8 | 9 | 0.0 | 1.6 | 0.00 | 0.79 | 0.00 | 93 | 1013.7 |
| 20260507022828 | 8 | 265 | 0.0 | 1.6 | 0.00 | 0.79 | 0.00 | 93 | 1013.6 |
| 20260507022745 | 8 | 9 | 0.0 | 1.6 | 0.00 | 0.79 | 0.00 | 93 | 1013.6 |
| 20260507022707 | 8 | 93 | 0.0 | 1.6 | 0.00 | 0.79 | 0.00 | 93 | 1013.6 |
| 20260507022631 | 8 | 93 | 0.0 | 1.6 | 0.00 | 0.79 | 0.00 | 93 | 1013.6 |
| 20260507022223 | 8 | 153 | 0.0 | 1.6 | 0.00 | 0.79 | 0.00 | 93 | 1013.7 |
| 20260507022144 | 8 | 153 | 0.0 | 1.6 | 0.00 | 0.79 | 0.00 | 93 | 1013.7 |
| 20260507022107 | 8 | 178 | 0.0 | 1.6 | 0.00 | 0.79 | 0.00 | 93 | 1013.7 |
| 20260507022026 | 8 | 161 | 1.6 | 1.6 | 0.00 | 0.79 | 0.00 | 93 | 1013.6 |
| 20260507021802 | 8 | 161 | 1.6 | 1.6 | 0.00 | 0.79 | 0.00 | 93 | 1013.7 |
| 20260507021549 | 8 | 153 | 1.6 | 1.6 | 0.00 | 0.79 | 0.00 | 93 | 1013.6 |
| 20260507021508 | 8 | 146 | 0.0 | 1.6 | 0.00 | 0.79 | 0.00 | 93 | 1013.7 |
| 20260507021427 | 8 | 137 | 0.0 | 1.6 | 0.00 | 0.79 | 0.00 | 93 | 1013.7 |
| 20260507021346 | 8 | 137 | 1.6 | 1.6 | 0.00 | 0.79 | 0.00 | 93 | 1013.7 |
| 20260507021311 | 8 | 126 | 1.6 | 1.6 | 0.00 | 0.79 | 0.00 | 93 | 1013.7 |
| 20260507021053 | 8 | 137 | 0.0 | 1.6 | 0.00 | 0.79 | 0.00 | 93 | 1013.7 |
| 20260507020814 | 8 | 161 | 1.6 | 1.6 | 0.00 | 0.79 | 0.00 | 93 | 1013.7 |
| 20260507020405 | 8 | 158 | 1.6 | 1.6 | 0.00 | 0.79 | 0.00 | 93 | 1013.7 |
| 20260507020322 | 8 | 161 | 1.6 | 1.6 | 0.00 | 0.79 | 0.00 | 93 | 1013.7 |
| 20260507020127 | 8 | 178 | 1.6 | 3.2 | 0.00 | 0.79 | 0.00 | 93 | 1013.7 |
| 20260507020115 | 9 | 161 | 1.6 | 3.2 | 0.00 | 0.81 | 0.00 | 92 | 1014.4 |
| 20260507020025 | 8 | 178 | 1.6 | 3.2 | 0.00 | 0.79 | 0.00 | 93 | 1013.7 |
| 20260507015922 | 8 | 146 | 1.6 | 3.2 | 0.00 | 0.79 | 0.00 | 93 | 1013.7 |
| 20260507015840 | 9 | 161 | 1.6 | 3.2 | 0.00 | 0.79 | 0.00 | 93 | 1013.7 |
| 20260507015759 | 9 | 153 | 1.6 | 3.2 | 0.00 | 0.79 | 0.00 | 93 | 1013.7 |
| 20260507015510 | 9 | 146 | 1.6 | 3.2 | 0.00 | 0.79 | 0.00 | 93 | 1013.7 |
| 20260507015408 | 9 | 161 | 1.6 | 3.2 | 0.00 | 0.79 | 0.00 | 93 | 1013.7 |
| 20260507015306 | 9 | 178 | 1.6 | 3.2 | 0.00 | 0.79 | 0.00 | 93 | 1013.8 |
| 20260507015207 | 9 | 178 | 1.6 | 3.2 | 0.00 | 0.79 | 0.00 | 93 | 1013.7 |
| 20260507015107 | 9 | 165 | 1.6 | 3.2 | 0.00 | 0.79 | 0.00 | 93 | 1013.7 |
| 20260507015016 | 9 | 178 | 1.6 | 3.2 | 0.00 | 0.79 | 0.00 | 93 | 1013.8 |
| 20260507014935 | 9 | 178 | 1.6 | 3.2 | 0.00 | 0.79 | 0.00 | 93 | 1013.7 |
| 20260507014851 | 9 | 178 | 1.6 | 3.2 | 0.00 | 0.79 | 0.00 | 93 | 1013.8 |
| 20260507014604 | 9 | 165 | 1.6 | 4.8 | 0.00 | 0.79 | 0.00 | 93 | 1013.8 |
| 20260507014519 | 9 | 165 | 1.6 | 6.4 | 0.00 | 0.79 | 0.00 | 93 | 1013.8 |
| 20260507014438 | 9 | 178 | 1.6 | 6.4 | 0.00 | 0.79 | 0.00 | 93 | 1013.8 |
| 20260507014352 | 9 | 178 | 1.6 | 6.4 | 0.00 | 0.79 | 0.00 | 93 | 1013.8 |
| 20260507014124 | 9 | 178 | 1.6 | 6.4 | 0.00 | 0.79 | 0.00 | 93 | 1013.8 |
| 20260507014046 | 9 | 178 | 3.2 | 6.4 | 0.00 | 0.79 | 0.00 | 93 | 1013.8 |
| 20260507013910 | 8 | 170 | 3.2 | 6.4 | 0.00 | 0.81 | 0.00 | 92 | 1014.4 |
| 20260507013841 | 9 | 178 | 3.2 | 6.4 | 0.00 | 0.79 | 0.00 | 93 | 1013.7 |
| 20260507013753 | 9 | 168 | 3.2 | 6.4 | 0.00 | 0.79 | 0.00 | 93 | 1013.8 |
| 20260507013654 | 9 | 173 | 3.2 | 6.4 | 0.00 | 0.79 | 0.00 | 93 | 1013.8 |
| 20260507013629 | 8 | 171 | 3.2 | 6.4 | 0.00 | 0.81 | 0.00 | 92 | 1014.4 |
| 20260507013541 | 9 | 163 | 3.2 | 6.4 | 0.00 | 0.79 | 0.00 | 93 | 1013.8 |
| 20260507013437 | 9 | 171 | 3.2 | 3.2 | 0.00 | 0.79 | 0.00 | 93 | 1013.8 |
| 20260507013411 | 8 | 171 | 4.8 | 6.4 | 0.00 | 0.81 | 0.00 | 92 | 1014.5 |
| 20260507013339 | 9 | 170 | 1.6 | 3.2 | 0.00 | 0.79 | 0.00 | 93 | 1013.8 |
| 20260507013257 | 8 | 173 | 3.2 | 6.4 | 0.00 | 0.81 | 0.00 | 92 | 1014.5 |
| 20260507013230 | 9 | 205 | 1.6 | 3.2 | 0.00 | 0.79 | 0.00 | 93 | 1013.8 |
| 20260507013129 | 9 | 165 | 1.6 | 3.2 | 0.00 | 0.79 | 0.00 | 93 | 1013.8 |
| 20260507013053 | 8 | 171 | 3.2 | 8.0 | 0.00 | 0.81 | 0.00 | 92 | 1014.5 |
| 20260507013028 | 9 | 215 | 1.6 | 3.2 | 0.00 | 0.79 | 0.00 | 93 | 1013.8 |
| 20260507012941 | 9 | 196 | 1.6 | 3.2 | 0.00 | 0.79 | 0.00 | 93 | 1013.8 |
| 20260507012902 | 9 | 232 | 1.6 | 3.2 | 0.00 | 0.79 | 0.00 | 93 | 1013.9 |
| 20260507012620 | 9 | 178 | 1.6 | 3.2 | 0.00 | 0.79 | 0.00 | 93 | 1013.8 |
| 20260507012538 | 9 | 178 | 1.6 | 3.2 | 0.00 | 0.79 | 0.00 | 93 | 1013.8 |
| 20260507012500 | 9 | 178 | 1.6 | 3.2 | 0.00 | 0.79 | 0.00 | 93 | 1013.9 |
| 20260507012228 | 9 | 221 | 0.0 | 1.6 | 0.00 | 0.79 | 0.00 | 93 | 1013.8 |
| 20260507012148 | 9 | 291 | 0.0 | 1.6 | 0.00 | 0.79 | 0.00 | 93 | 1013.9 |
| 20260507011908 | 9 | 309 | 0.0 | 1.6 | 0.00 | 0.79 | 0.00 | 93 | 1013.9 |
| 20260507011817 | 9 | 309 | 0.0 | 1.6 | 0.00 | 0.79 | 0.00 | 93 | 1013.9 |
| 20260507011743 | 9 | 309 | 0.0 | 1.6 | 0.00 | 0.79 | 0.00 | 93 | 1013.9 |
| 20260507011555 | 8 | 171 | 4.8 | 6.4 | 0.00 | 0.81 | 0.00 | 92 | 1014.5 |
| 20260507011512 | 9 | 309 | 0.0 | 3.2 | 0.00 | 0.79 | 0.00 | 93 | 1014.0 |
| 20260507011434 | 9 | 309 | 0.0 | 3.2 | 0.00 | 0.79 | 0.00 | 93 | 1013.9 |
| 20260507011358 | 9 | 111 | 0.0 | 3.2 | 0.00 | 0.79 | 0.00 | 93 | 1013.9 |
| 20260507011159 | 9 | 34 | 0.0 | 3.2 | 0.00 | 0.79 | 0.00 | 93 | 1013.9 |
| 20260507011059 | 9 | 26 | 1.6 | 3.2 | 0.00 | 0.79 | 0.00 | 93 | 1013.9 |
| 20260507010854 | 9 | 146 | 1.6 | 3.2 | 0.00 | 0.79 | 0.00 | 93 | 1014.0 |
| 20260507010756 | 9 | 137 | 1.6 | 4.8 | 0.00 | 0.79 | 0.00 | 93 | 1014.0 |
| 20260507010716 | 9 | 161 | 1.6 | 6.4 | 0.00 | 0.79 | 0.00 | 93 | 1013.9 |
| 20260507010630 | 9 | 165 | 1.6 | 6.4 | 0.00 | 0.79 | 0.00 | 93 | 1013.9 |
| 20260507010348 | 9 | 146 | 1.6 | 6.4 | 0.00 | 0.79 | 0.00 | 93 | 1014.0 |
| 20260507010247 | 9 | 126 | 3.2 | 6.4 | 0.00 | 0.79 | 0.00 | 93 | 1014.0 |
| 20260507010148 | 9 | 111 | 3.2 | 6.4 | 0.00 | 0.79 | 0.00 | 93 | 1014.0 |
| 20260507010046 | 9 | 105 | 3.2 | 6.4 | 0.00 | 0.79 | 0.00 | 93 | 1014.0 |
| 20260507010011 | 8 | 265 | 1.6 | 3.2 | 0.00 | 0.84 | 0.00 | 91 | 1014.5 |
| 20260507005945 | 9 | 105 | 3.2 | 6.4 | 0.00 | 0.79 | 0.00 | 93 | 1014.0 |
| 20260507005905 | 9 | 102 | 4.8 | 6.4 | 0.00 | 0.79 | 0.00 | 93 | 1014.0 |
| 20260507005823 | 9 | 111 | 4.8 | 6.4 | 0.00 | 0.79 | 0.00 | 93 | 1014.0 |
| 20260507005538 | 9 | 110 | 1.6 | 3.2 | 0.00 | 0.79 | 0.00 | 93 | 1014.2 |
| 20260507005437 | 9 | 115 | 1.6 | 3.2 | 0.00 | 0.79 | 0.00 | 93 | 1014.2 |
| 20260507005418 | 8 | 161 | 1.6 | 6.4 | 0.00 | 0.89 | 0.00 | 91 | 1014.4 |
| 20260507005335 | 9 | 137 | 1.6 | 3.2 | 0.00 | 0.79 | 0.00 | 93 | 1014.0 |
| 20260507005305 | 8 | 325 | 1.6 | 6.4 | 0.00 | 0.89 | 0.00 | 91 | 1014.4 |
| 20260507005237 | 9 | 178 | 1.6 | 3.2 | 0.00 | 0.79 | 0.00 | 93 | 1014.2 |
| 20260507005224 | 8 | 265 | 3.2 | 6.4 | 0.00 | 0.89 | 0.00 | 91 | 1014.4 |
| 20260507005136 | 9 | 178 | 1.6 | 3.2 | 0.00 | 0.79 | 0.00 | 93 | 1014.2 |
| 20260507005018 | 9 | 161 | 1.6 | 6.4 | 0.00 | 0.79 | 0.00 | 93 | 1014.2 |
| 20260507004938 | 8 | 196 | 3.2 | 8.0 | 0.00 | 0.89 | 0.00 | 91 | 1014.4 |
| 20260507004919 | 9 | 161 | 0.0 | 6.4 | 0.00 | 0.79 | 0.00 | 93 | 1014.2 |
| 20260507004815 | 9 | 153 | 0.0 | 6.4 | 0.00 | 0.79 | 0.00 | 93 | 1014.3 |
| 20260507004735 | 9 | 205 | 0.0 | 6.4 | 0.00 | 0.79 | 0.00 | 93 | 1014.3 |
| 20260507004652 | 9 | 153 | 0.0 | 6.4 | 0.00 | 0.79 | 0.00 | 93 | 1014.3 |
| 20260507004614 | 9 | 178 | 1.6 | 6.4 | 0.00 | 0.79 | 0.00 | 93 | 1014.2 |
| 20260507004536 | 9 | 232 | 1.6 | 6.4 | 0.00 | 0.79 | 0.00 | 93 | 1014.2 |
| 20260507004135 | 8 | 167 | 3.2 | 4.8 | 0.00 | 0.89 | 0.00 | 91 | 1014.4 |
| 20260507004113 | 9 | 163 | 1.6 | 6.4 | 0.00 | 0.79 | 0.00 | 93 | 1014.3 |
| 20260507004025 | 9 | 178 | 1.6 | 3.2 | 0.00 | 0.79 | 0.00 | 93 | 1014.3 |
| 20260507003945 | 9 | 205 | 1.6 | 3.2 | 0.00 | 0.79 | 0.00 | 93 | 1014.3 |
| 20260507003903 | 9 | 215 | 1.6 | 3.2 | 0.00 | 0.79 | 0.00 | 93 | 1014.3 |
| 20260507003637 | 9 | 165 | 1.6 | 3.2 | 0.00 | 0.79 | 0.00 | 93 | 1014.3 |
| 20260507003558 | 9 | 178 | 1.6 | 1.6 | 0.00 | 0.79 | 0.00 | 93 | 1014.4 |
| 20260507003347 | 8 | 161 | 1.6 | 4.8 | 0.00 | 0.89 | 0.00 | 91 | 1014.4 |
| 20260507003304 | 9 | 265 | 0.0 | 3.2 | 0.00 | 0.79 | 0.00 | 93 | 1014.4 |
| 20260507003204 | 9 | 238 | 0.0 | 3.2 | 0.00 | 0.79 | 0.00 | 93 | 1014.4 |
| 20260507003125 | 9 | 161 | 3.2 | 4.8 | 0.00 | 0.89 | 0.89 | 91 | 1014.4 |
| 20260507003101 | 9 | 137 | 0.0 | 3.2 | 0.00 | 0.79 | 0.00 | 93 | 1014.4 |
| 20260507003034 | 9 | 161 | 3.2 | 4.8 | 0.00 | 0.89 | 0.89 | 91 | 1014.4 |
| 20260507003001 | 9 | 137 | 0.0 | 3.2 | 0.00 | 0.79 | 0.00 | 93 | 1014.4 |
| 20260507002924 | 9 | 153 | 3.2 | 3.2 | 0.00 | 0.89 | 0.89 | 91 | 1014.3 |
| 20260507002858 | 9 | 178 | 0.0 | 3.2 | 0.00 | 0.79 | 0.00 | 93 | 1014.4 |
| 20260507002839 | 9 | 149 | 1.6 | 8.0 | 0.00 | 0.89 | 0.89 | 91 | 1014.4 |
| 20260507002756 | 9 | 178 | 1.6 | 4.8 | 0.00 | 0.79 | 0.00 | 93 | 1014.4 |
| 20260507002658 | 9 | 137 | 1.6 | 4.8 | 0.00 | 0.79 | 0.00 | 93 | 1014.4 |
| 20260507002559 | 9 | 146 | 1.6 | 4.8 | 0.00 | 0.79 | 0.00 | 93 | 1014.4 |
| 20260507002521 | 9 | 126 | 1.6 | 4.8 | 0.00 | 0.79 | 0.00 | 93 | 1014.4 |
| 20260507002438 | 9 | 51 | 1.6 | 4.8 | 0.00 | 0.79 | 0.00 | 93 | 1014.4 |
| 20260507002400 | 9 | 93 | 1.6 | 4.8 | 0.00 | 0.79 | 0.00 | 93 | 1014.4 |
| 20260507002130 | 9 | 126 | 3.2 | 4.8 | 0.00 | 0.79 | 0.00 | 93 | 1014.4 |
| 20260507001921 | 9 | 144 | 6.4 | 8.0 | 0.00 | 0.89 | 0.89 | 91 | 1014.3 |
| 20260507001848 | 9 | 123 | 3.2 | 6.4 | 0.00 | 0.79 | 0.00 | 93 | 1014.4 |
| 20260507001750 | 9 | 102 | 3.2 | 6.4 | 0.00 | 0.79 | 0.00 | 93 | 1014.5 |
| 20260507001734 | 9 | 157 | 4.8 | 8.0 | 0.00 | 0.89 | 0.89 | 91 | 1014.4 |
| 20260507001645 | 9 | 116 | 3.2 | 6.4 | 0.00 | 0.79 | 0.00 | 93 | 1014.4 |
| 20260507001545 | 9 | 126 | 3.2 | 6.4 | 0.00 | 0.79 | 0.00 | 93 | 1014.5 |
| 20260507001442 | 9 | 126 | 3.2 | 6.4 | 0.00 | 0.79 | 0.00 | 93 | 1014.4 |
| 20260507001358 | 9 | 116 | 3.2 | 6.4 | 0.00 | 0.79 | 0.00 | 93 | 1014.4 |
| 20260507001315 | 9 | 123 | 4.8 | 6.4 | 0.00 | 0.79 | 0.00 | 93 | 1014.4 |
| 20260507001229 | 9 | 108 | 4.8 | 6.4 | 0.00 | 0.79 | 0.00 | 93 | 1014.4 |
| 20260507001003 | 9 | 109 | 1.6 | 4.8 | 0.00 | 0.79 | 0.00 | 93 | 1014.5 |
| 20260507000908 | 9 | 115 | 1.6 | 3.2 | 0.00 | 0.79 | 0.00 | 93 | 1014.4 |
| 20260507000827 | 9 | 119 | 1.6 | 3.2 | 0.00 | 0.79 | 0.00 | 93 | 1014.4 |
| 20260507000734 | 9 | 111 | 1.6 | 3.2 | 0.00 | 0.79 | 0.00 | 93 | 1014.4 |
| 20260507000446 | 9 | 153 | 1.6 | 3.2 | 0.00 | 0.79 | 0.00 | 93 | 1014.5 |
| 20260507000405 | 9 | 153 | 1.6 | 3.2 | 0.00 | 0.79 | 0.00 | 93 | 1014.4 |
| 20260507000306 | 9 | 153 | 1.6 | 3.2 | 0.00 | 0.79 | 0.00 | 93 | 1014.4 |
| 20260507000224 | 9 | 153 | 1.6 | 3.2 | 0.00 | 0.79 | 0.00 | 93 | 1014.4 |
| 20260507000145 | 9 | 146 | 1.6 | 3.2 | 0.00 | 0.79 | 0.00 | 93 | 1014.4 |
| 20260507000042 | 9 | 153 | 1.6 | 3.2 | 0.00 | 0.79 | 0.00 | 93 | 1014.4 |
| 20260507000005 | 9 | 146 | 1.6 | 3.2 | 0.00 | 0.79 | 0.00 | 93 | 1014.4 |
| 20260506235926 | 9 | 146 | 1.6 | 3.2 | 0.00 | 0.79 | 0.00 | 93 | 1014.4 |
| 20260506235842 | 9 | 144 | 1.6 | 3.2 | 0.00 | 0.79 | 0.00 | 93 | 1014.4 |
| 20260506235623 | 9 | 137 | 1.6 | 3.2 | 0.00 | 0.79 | 0.00 | 93 | 1014.4 |
| 20260506235542 | 9 | 129 | 1.6 | 6.4 | 0.00 | 0.79 | 0.00 | 93 | 1014.4 |
| 20260506235448 | 9 | 144 | 1.6 | 6.4 | 0.00 | 0.79 | 0.00 | 93 | 1014.4 |
| 20260506235217 | 9 | 119 | 1.6 | 6.4 | 0.00 | 0.79 | 0.00 | 93 | 1014.5 |
| 20260506234624 | 9 | 126 | 1.6 | 6.4 | 0.00 | 0.81 | 0.00 | 93 | 1014.5 |
| 20260506234543 | 9 | 146 | 3.2 | 6.4 | 0.00 | 0.81 | 0.00 | 93 | 1014.4 |
| 20260506234502 | 9 | 165 | 3.2 | 6.4 | 0.00 | 0.81 | 0.00 | 93 | 1014.4 |
| 20260506234422 | 9 | 163 | 3.2 | 6.4 | 0.00 | 0.81 | 0.00 | 93 | 1014.4 |
| 20260506234338 | 9 | 163 | 3.2 | 6.4 | 0.00 | 0.81 | 0.00 | 93 | 1014.4 |
| 20260506234111 | 9 | 161 | 3.2 | 3.2 | 0.00 | 0.81 | 0.00 | 93 | 1014.4 |
| 20260506233648 | 9 | 153 | 3.2 | 3.2 | 0.00 | 0.81 | 0.00 | 92 | 1014.4 |
| 20260506233548 | 9 | 158 | 1.6 | 3.2 | 0.00 | 0.81 | 0.00 | 92 | 1014.4 |
| 20260506233451 | 9 | 161 | 1.6 | 3.2 | 0.00 | 0.81 | 0.00 | 92 | 1014.4 |
| 20260506233335 | 9 | 170 | 1.6 | 3.2 | 0.00 | 0.81 | 0.00 | 92 | 1014.4 |
| 20260506233239 | 9 | 158 | 1.6 | 3.2 | 0.00 | 0.81 | 0.00 | 92 | 1014.4 |
| 20260506233135 | 9 | 161 | 1.6 | 6.4 | 0.00 | 0.81 | 0.00 | 92 | 1014.5 |
| 20260506233037 | 9 | 137 | 1.6 | 6.4 | 0.00 | 0.81 | 0.00 | 92 | 1014.5 |
| 20260506233026 | 10 | 178 | 1.6 | 3.2 | 0.00 | 0.89 | 0.89 | 91 | 1014.4 |
| 20260506232937 | 9 | 205 | 1.6 | 6.4 | 0.00 | 0.81 | 0.00 | 92 | 1014.5 |
| 20260506232926 | 10 | 161 | 1.6 | 6.4 | 0.00 | 0.89 | 0.89 | 91 | 1014.4 |
| 20260506232833 | 9 | 153 | 1.6 | 6.4 | 0.00 | 0.81 | 0.00 | 92 | 1014.4 |
| 20260506232748 | 9 | 168 | 1.6 | 6.4 | 0.00 | 0.81 | 0.00 | 92 | 1014.4 |
| 20260506232709 | 8 | 153 | 1.6 | 6.4 | 0.00 | 0.81 | 0.00 | 92 | 1014.5 |
| 20260506232622 | 8 | 153 | 1.6 | 6.4 | 0.00 | 0.81 | 0.00 | 92 | 1014.5 |
| 20260506232537 | 8 | 153 | 3.2 | 6.4 | 0.00 | 0.81 | 0.00 | 92 | 1014.5 |
| 20260506232453 | 8 | 161 | 3.2 | 6.4 | 0.00 | 0.81 | 0.00 | 92 | 1014.5 |
| 20260506232405 | 8 | 163 | 3.2 | 6.4 | 0.00 | 0.81 | 0.00 | 92 | 1014.5 |
| 20260506232312 | 8 | 158 | 3.2 | 6.4 | 0.00 | 0.81 | 0.00 | 92 | 1014.5 |
| 20260506232227 | 8 | 165 | 3.2 | 6.4 | 0.00 | 0.81 | 0.00 | 92 | 1014.4 |
| 20260506231822 | 8 | 161 | 3.2 | 6.4 | 0.00 | 0.81 | 0.00 | 92 | 1014.6 |
| 20260506231558 | 8 | 196 | 3.2 | 6.4 | 0.00 | 0.81 | 0.00 | 92 | 1014.5 |
| 20260506231517 | 8 | 205 | 1.6 | 6.4 | 0.00 | 0.81 | 0.00 | 92 | 1014.5 |
| 20260506231435 | 8 | 178 | 3.2 | 6.4 | 0.00 | 0.81 | 0.00 | 92 | 1014.5 |
| 20260506231343 | 8 | 168 | 3.2 | 6.4 | 0.00 | 0.81 | 0.00 | 92 | 1014.5 |
| 20260506230943 | 10 | 170 | 3.2 | 6.4 | 0.00 | 0.89 | 0.89 | 91 | 1014.3 |
| 20260506230912 | 8 | 173 | 3.2 | 6.4 | 0.00 | 0.81 | 0.00 | 92 | 1014.5 |
| 20260506230829 | 8 | 205 | 3.2 | 6.4 | 0.00 | 0.81 | 0.00 | 92 | 1014.5 |
| 20260506230745 | 8 | 170 | 4.8 | 6.4 | 0.00 | 0.81 | 0.00 | 92 | 1014.5 |
| 20260506230702 | 8 | 173 | 3.2 | 8.0 | 0.00 | 0.81 | 0.00 | 92 | 1014.5 |
| 20260506230409 | 8 | 170 | 1.6 | 8.0 | 0.00 | 0.81 | 0.00 | 92 | 1014.5 |
| 20260506230306 | 8 | 178 | 1.6 | 8.0 | 0.00 | 0.81 | 0.00 | 92 | 1014.6 |
| 20260506230205 | 8 | 190 | 3.2 | 8.0 | 0.00 | 0.81 | 0.00 | 92 | 1014.5 |
| 20260506230103 | 8 | 196 | 3.2 | 8.0 | 0.00 | 0.81 | 0.00 | 92 | 1014.6 |
| 20260506225957 | 8 | 171 | 3.2 | 8.0 | 0.00 | 0.81 | 0.00 | 92 | 1014.5 |
| 20260506225905 | 8 | 171 | 4.8 | 8.0 | 0.00 | 0.81 | 0.00 | 92 | 1014.5 |
| 20260506225822 | 8 | 161 | 4.8 | 8.0 | 0.00 | 0.81 | 0.00 | 92 | 1014.5 |
| 20260506225738 | 8 | 168 | 3.2 | 8.0 | 0.00 | 0.81 | 0.00 | 92 | 1014.5 |
| 20260506225656 | 8 | 171 | 3.2 | 6.4 | 0.00 | 0.81 | 0.00 | 92 | 1014.5 |
| 20260506225433 | 8 | 161 | 3.2 | 6.4 | 0.00 | 0.81 | 0.00 | 92 | 1014.5 |
| 20260506225154 | 8 | 167 | 3.2 | 6.4 | 0.00 | 0.81 | 0.00 | 92 | 1014.6 |
| 20260506225053 | 8 | 171 | 1.6 | 6.4 | 0.00 | 0.81 | 0.00 | 92 | 1014.6 |
| 20260506224953 | 8 | 173 | 1.6 | 6.4 | 0.00 | 0.81 | 0.00 | 92 | 1014.6 |
| 20260506224941 | 10 | 157 | 3.2 | 4.8 | 0.00 | 0.89 | 0.89 | 91 | 1014.3 |
| 20260506224852 | 8 | 227 | 1.6 | 6.4 | 0.00 | 0.81 | 0.00 | 92 | 1014.5 |
| 20260506224748 | 8 | 170 | 1.6 | 6.4 | 0.00 | 0.81 | 0.00 | 92 | 1014.5 |
| 20260506224700 | 8 | 168 | 1.6 | 3.2 | 0.00 | 0.81 | 0.00 | 92 | 1014.5 |
| 20260506224615 | 8 | 221 | 1.6 | 3.2 | 0.00 | 0.81 | 0.00 | 92 | 1014.5 |
| 20260506224536 | 8 | 193 | 0.0 | 3.2 | 0.00 | 0.81 | 0.00 | 92 | 1014.6 |
| 20260506224344 | 8 | 205 | 0.0 | 3.2 | 0.00 | 0.81 | 0.00 | 92 | 1014.5 |
| 20260506224304 | 10 | 153 | 1.6 | 4.8 | 0.00 | 0.89 | 0.89 | 91 | 1014.0 |
| 20260506224243 | 8 | 193 | 1.6 | 3.2 | 0.00 | 0.81 | 0.00 | 92 | 1014.5 |
| 20260506224142 | 8 | 178 | 1.6 | 3.2 | 0.00 | 0.81 | 0.00 | 92 | 1014.5 |
| 20260506224040 | 8 | 178 | 1.6 | 3.2 | 0.00 | 0.81 | 0.00 | 92 | 1014.5 |
| 20260506223955 | 10 | 149 | 1.6 | 6.4 | 0.00 | 0.89 | 0.89 | 91 | 1013.9 |
| 20260506223939 | 8 | 158 | 0.0 | 3.2 | 0.00 | 0.81 | 0.00 | 92 | 1014.5 |
| 20260506223838 | 8 | 178 | 0.0 | 3.2 | 0.00 | 0.81 | 0.00 | 92 | 1014.5 |
| 20260506223737 | 8 | 161 | 0.0 | 3.2 | 0.00 | 0.81 | 0.00 | 92 | 1014.6 |
| 20260506223721 | 10 | 161 | 1.6 | 6.4 | 0.00 | 0.89 | 0.89 | 91 | 1013.8 |
| 20260506223646 | 10 | 157 | 1.6 | 3.2 | 0.00 | 0.89 | 0.89 | 91 | 1013.8 |
| 20260506223632 | 8 | 161 | 1.6 | 3.2 | 0.00 | 0.81 | 0.00 | 92 | 1014.5 |
| 20260506223534 | 8 | 196 | 1.6 | 3.2 | 0.00 | 0.84 | 0.00 | 92 | 1014.5 |
| 20260506223454 | 10 | 108 | 1.6 | 3.2 | 0.00 | 0.89 | 0.89 | 91 | 1013.7 |
| 20260506223432 | 8 | 178 | 1.6 | 3.2 | 0.00 | 0.84 | 0.00 | 92 | 1014.5 |
| 20260506223345 | 8 | 196 | 0.0 | 3.2 | 0.00 | 0.84 | 0.00 | 92 | 1014.5 |
| 20260506223307 | 8 | 205 | 0.0 | 3.2 | 0.00 | 0.84 | 0.00 | 91 | 1014.5 |
| 20260506223103 | 10 | 129 | 1.6 | 3.2 | 0.00 | 0.89 | 0.89 | 91 | 1013.6 |
| 20260506223028 | 8 | 215 | 1.6 | 3.2 | 0.00 | 0.84 | 0.00 | 91 | 1014.4 |
| 20260506222936 | 8 | 178 | 1.6 | 4.8 | 0.00 | 0.86 | 0.00 | 91 | 1014.5 |
| 20260506222857 | 8 | 178 | 1.6 | 4.8 | 0.00 | 0.89 | 0.00 | 91 | 1014.5 |
| 20260506222817 | 8 | 309 | 1.6 | 6.4 | 0.00 | 0.89 | 0.00 | 91 | 1014.5 |
| 20260506222738 | 8 | 295 | 0.0 | 6.4 | 0.00 | 0.89 | 0.00 | 91 | 1014.5 |
| 20260506222522 | 8 | 282 | 1.6 | 6.4 | 0.00 | 0.89 | 0.00 | 91 | 1014.4 |
| 20260506222442 | 8 | 161 | 1.6 | 6.4 | 0.00 | 0.89 | 0.00 | 91 | 1014.5 |
| 20260506222015 | 8 | 170 | 3.2 | 6.4 | 0.00 | 0.89 | 0.00 | 91 | 1014.4 |
| 20260506221914 | 8 | 205 | 3.2 | 6.4 | 0.00 | 0.89 | 0.00 | 91 | 1014.5 |
| 20260506221813 | 8 | 178 | 3.2 | 6.4 | 0.00 | 0.89 | 0.00 | 91 | 1014.4 |
| 20260506221741 | 11 | 165 | 0.0 | 6.4 | 0.00 | 0.89 | 0.89 | 91 | 1013.5 |
| 20260506221713 | 8 | 165 | 3.2 | 8.0 | 0.00 | 0.89 | 0.00 | 91 | 1014.4 |
| 20260506221612 | 8 | 163 | 1.6 | 8.0 | 0.00 | 0.89 | 0.00 | 91 | 1014.4 |
| 20260506221550 | 11 | 158 | 3.2 | 6.4 | 0.00 | 0.89 | 0.89 | 91 | 1013.4 |
| 20260506221511 | 8 | 193 | 0.0 | 8.0 | 0.00 | 0.89 | 0.00 | 91 | 1014.4 |
| 20260506221501 | 11 | 144 | 3.2 | 6.4 | 0.00 | 0.89 | 0.89 | 91 | 1013.4 |
| 20260506221413 | 8 | 205 | 0.0 | 8.0 | 0.00 | 0.89 | 0.00 | 91 | 1014.4 |
| 20260506221337 | 8 | 178 | 0.0 | 8.0 | 0.00 | 0.89 | 0.00 | 91 | 1014.4 |
| 20260506221256 | 8 | 178 | 1.6 | 8.0 | 0.00 | 0.89 | 0.00 | 91 | 1014.5 |
| 20260506221029 | 8 | 178 | 4.8 | 8.0 | 0.00 | 0.89 | 0.00 | 91 | 1014.5 |
| 20260506220937 | 8 | 161 | 6.4 | 8.0 | 0.00 | 0.89 | 0.00 | 91 | 1014.5 |
| 20260506220855 | 8 | 175 | 4.8 | 8.0 | 0.00 | 0.89 | 0.00 | 91 | 1014.4 |
| 20260506220809 | 8 | 165 | 3.2 | 8.0 | 0.00 | 0.89 | 0.00 | 91 | 1014.4 |
| 20260506220538 | 8 | 153 | 1.6 | 4.8 | 0.00 | 0.89 | 0.00 | 91 | 1014.4 |
| 20260506220307 | 9 | 146 | 1.6 | 4.8 | 0.00 | 0.89 | 0.00 | 91 | 1014.4 |
| 20260506220222 | 9 | 168 | 1.6 | 4.8 | 0.00 | 0.89 | 0.00 | 91 | 1014.4 |
| 20260506220139 | 9 | 168 | 1.6 | 4.8 | 0.00 | 0.89 | 0.00 | 91 | 1014.4 |
| 20260506220053 | 9 | 161 | 1.6 | 4.8 | 0.00 | 0.89 | 0.89 | 91 | 1014.3 |
| 20260506220002 | 9 | 137 | 3.2 | 4.8 | 0.00 | 0.89 | 0.89 | 91 | 1014.4 |
| 20260506215921 | 9 | 149 | 3.2 | 4.8 | 0.00 | 0.89 | 0.89 | 91 | 1014.3 |
| 20260506215507 | 9 | 171 | 3.2 | 3.2 | 0.00 | 0.89 | 0.89 | 91 | 1014.4 |
| 20260506215425 | 9 | 158 | 3.2 | 3.2 | 0.00 | 0.89 | 0.89 | 91 | 1014.4 |
| 20260506215201 | 9 | 158 | 1.6 | 3.2 | 0.00 | 0.89 | 0.89 | 91 | 1014.4 |
| 20260506215113 | 9 | 153 | 1.6 | 6.4 | 0.00 | 0.89 | 0.89 | 91 | 1014.4 |
| 20260506214828 | 9 | 137 | 1.6 | 8.0 | 0.00 | 0.89 | 0.89 | 91 | 1014.4 |
| 20260506214753 | 11 | 159 | 3.2 | 6.4 | 0.00 | 0.89 | 0.89 | 91 | 1013.3 |
| 20260506214725 | 9 | 161 | 1.6 | 8.0 | 0.00 | 0.89 | 0.89 | 91 | 1014.4 |
| 20260506214628 | 9 | 149 | 1.6 | 8.0 | 0.00 | 0.89 | 0.89 | 91 | 1014.4 |
| 20260506214525 | 9 | 165 | 1.6 | 8.0 | 0.00 | 0.89 | 0.89 | 91 | 1014.4 |
| 20260506214502 | 11 | 159 | 3.2 | 6.4 | 0.00 | 0.89 | 0.89 | 91 | 1013.1 |
| 20260506214427 | 9 | 161 | 1.6 | 8.0 | 0.00 | 0.89 | 0.89 | 91 | 1014.3 |
| 20260506214347 | 9 | 146 | 1.6 | 8.0 | 0.00 | 0.89 | 0.89 | 91 | 1014.4 |
| 20260506214310 | 9 | 153 | 3.2 | 8.0 | 0.00 | 0.89 | 0.89 | 91 | 1014.4 |
| 20260506214013 | 9 | 171 | 6.4 | 8.0 | 0.00 | 0.89 | 0.89 | 91 | 1014.4 |
| 20260506213926 | 9 | 167 | 4.8 | 8.0 | 0.00 | 0.89 | 0.89 | 91 | 1014.4 |
| 20260506213846 | 9 | 168 | 3.2 | 8.0 | 0.00 | 0.89 | 0.89 | 91 | 1014.4 |
| 20260506213602 | 9 | 167 | 4.8 | 8.0 | 0.00 | 0.89 | 0.89 | 91 | 1014.3 |
| 20260506213514 | 9 | 165 | 4.8 | 8.0 | 0.00 | 0.89 | 0.89 | 91 | 1014.4 |
| 20260506213434 | 9 | 165 | 6.4 | 8.0 | 0.00 | 0.89 | 0.89 | 91 | 1014.3 |
| 20260506213354 | 9 | 165 | 6.4 | 8.0 | 0.00 | 0.89 | 0.89 | 91 | 1014.3 |
| 20260506213157 | 9 | 170 | 4.8 | 6.4 | 0.00 | 0.89 | 0.89 | 91 | 1014.3 |
| 20260506213055 | 9 | 164 | 4.8 | 6.4 | 0.00 | 0.89 | 0.89 | 91 | 1014.3 |
| 20260506213015 | 11 | 178 | 1.6 | 3.2 | 0.00 | 0.89 | 0.89 | 91 | 1013.0 |
| 20260506212952 | 9 | 167 | 3.2 | 6.4 | 0.00 | 0.89 | 0.89 | 91 | 1014.4 |
| 20260506212938 | 11 | 158 | 1.6 | 3.2 | 0.00 | 0.89 | 0.89 | 91 | 1013.0 |
| 20260506212913 | 11 | 168 | 1.6 | 3.2 | 0.00 | 0.89 | 0.89 | 91 | 1013.0 |
| 20260506212851 | 9 | 161 | 3.2 | 6.4 | 0.00 | 0.89 | 0.89 | 91 | 1014.3 |
| 20260506212808 | 11 | 168 | 3.2 | 3.2 | 0.00 | 0.89 | 0.89 | 92 | 1013.0 |
| 20260506212752 | 9 | 165 | 3.2 | 6.4 | 0.00 | 0.89 | 0.89 | 91 | 1014.3 |
| 20260506212648 | 9 | 161 | 3.2 | 6.4 | 0.00 | 0.89 | 0.89 | 91 | 1014.3 |
| 20260506212549 | 9 | 168 | 3.2 | 6.4 | 0.00 | 0.89 | 0.89 | 91 | 1014.3 |
| 20260506212447 | 9 | 165 | 3.2 | 6.4 | 0.00 | 0.89 | 0.89 | 91 | 1014.3 |
| 20260506212349 | 9 | 153 | 3.2 | 6.4 | 0.00 | 0.89 | 0.89 | 91 | 1014.2 |
| 20260506212244 | 9 | 159 | 3.2 | 6.4 | 0.00 | 0.89 | 0.89 | 91 | 1014.3 |
| 20260506212146 | 9 | 157 | 3.2 | 4.8 | 0.00 | 0.89 | 0.89 | 91 | 1014.3 |
| 20260506212042 | 9 | 157 | 3.2 | 3.2 | 0.00 | 0.89 | 0.89 | 91 | 1014.3 |
| 20260506211941 | 9 | 168 | 1.6 | 3.2 | 0.00 | 0.89 | 0.89 | 91 | 1014.2 |
| 20260506211840 | 9 | 161 | 1.6 | 3.2 | 0.00 | 0.89 | 0.89 | 91 | 1014.3 |
| 20260506211820 | 11 | 165 | 1.6 | 8.0 | 0.00 | 0.89 | 0.89 | 92 | 1012.7 |
| 20260506211741 | 9 | 165 | 1.6 | 3.2 | 0.00 | 0.89 | 0.89 | 91 | 1014.3 |
| 20260506211637 | 10 | 178 | 1.6 | 3.2 | 0.00 | 0.89 | 0.89 | 91 | 1014.3 |
| 20260506211556 | 11 | 171 | 3.2 | 8.0 | 0.03 | 0.89 | 0.89 | 92 | 1012.7 |
| 20260506211539 | 10 | 178 | 1.6 | 3.2 | 0.00 | 0.89 | 0.89 | 91 | 1014.3 |
| 20260506211436 | 10 | 137 | 1.6 | 3.2 | 0.00 | 0.89 | 0.89 | 91 | 1014.3 |
| 20260506211332 | 10 | 165 | 1.6 | 3.2 | 0.00 | 0.89 | 0.89 | 91 | 1014.3 |
| 20260506211235 | 10 | 168 | 1.6 | 3.2 | 0.00 | 0.89 | 0.89 | 91 | 1014.3 |
| 20260506211151 | 10 | 161 | 1.6 | 3.2 | 0.00 | 0.89 | 0.89 | 91 | 1014.3 |
| 20260506211053 | 10 | 158 | 1.6 | 3.2 | 0.00 | 0.89 | 0.89 | 91 | 1014.3 |
| 20260506211011 | 10 | 168 | 1.6 | 3.2 | 0.00 | 0.89 | 0.89 | 91 | 1014.3 |
| 20260506210929 | 10 | 178 | 0.0 | 3.2 | 0.00 | 0.89 | 0.89 | 91 | 1014.4 |
| 20260506210836 | 10 | 161 | 1.6 | 3.2 | 0.00 | 0.89 | 0.89 | 91 | 1014.3 |
| 20260506210600 | 10 | 168 | 1.6 | 6.4 | 0.00 | 0.89 | 0.89 | 91 | 1014.4 |
| 20260506210338 | 10 | 153 | 1.6 | 6.4 | 0.00 | 0.89 | 0.89 | 91 | 1014.4 |
| 20260506210254 | 10 | 178 | 1.6 | 6.4 | 0.00 | 0.89 | 0.89 | 91 | 1014.4 |
| 20260506210211 | 10 | 170 | 1.6 | 6.4 | 0.00 | 0.89 | 0.89 | 91 | 1014.4 |
| 20260506205942 | 11 | 178 | 1.6 | 4.8 | 0.03 | 0.89 | 0.89 | 92 | 1012.6 |
| 20260506205912 | 10 | 168 | 3.2 | 6.4 | 0.00 | 0.89 | 0.89 | 91 | 1014.3 |
| 20260506205843 | 11 | 205 | 1.6 | 4.8 | 0.03 | 0.89 | 0.89 | 92 | 1012.6 |
| 20260506205813 | 10 | 159 | 3.2 | 6.4 | 0.00 | 0.89 | 0.89 | 91 | 1014.4 |
| 20260506205802 | 11 | 178 | 1.6 | 4.8 | 0.03 | 0.89 | 0.89 | 92 | 1012.6 |
| 20260506205707 | 10 | 178 | 3.2 | 6.4 | 0.00 | 0.89 | 0.89 | 91 | 1014.3 |
| 20260506205618 | 10 | 159 | 3.2 | 6.4 | 0.00 | 0.89 | 0.89 | 91 | 1014.3 |
| 20260506205534 | 10 | 167 | 1.6 | 6.4 | 0.00 | 0.89 | 0.89 | 91 | 1014.4 |
| 20260506205452 | 10 | 158 | 1.6 | 6.4 | 0.00 | 0.89 | 0.89 | 91 | 1014.4 |
| 20260506205306 | 10 | 144 | 3.2 | 6.4 | 0.00 | 0.89 | 0.89 | 91 | 1014.4 |
| 20260506205204 | 10 | 123 | 1.6 | 6.4 | 0.00 | 0.89 | 0.89 | 91 | 1014.4 |
| 20260506205123 | 11 | 265 | 1.6 | 3.2 | 0.03 | 0.89 | 0.89 | 92 | 1012.6 |
| 20260506205102 | 10 | 116 | 1.6 | 6.4 | 0.00 | 0.89 | 0.89 | 91 | 1014.4 |
| 20260506205003 | 10 | 137 | 3.2 | 6.4 | 0.00 | 0.89 | 0.89 | 91 | 1014.4 |
| 20260506204859 | 10 | 161 | 3.2 | 6.4 | 0.00 | 0.89 | 0.89 | 91 | 1014.4 |
| 20260506204831 | 11 | 149 | 1.6 | 6.4 | 0.03 | 0.89 | 0.89 | 92 | 1012.5 |
| 20260506204800 | 10 | 165 | 3.2 | 6.4 | 0.00 | 0.89 | 0.89 | 91 | 1014.4 |
| 20260506204656 | 10 | 161 | 3.2 | 6.4 | 0.00 | 0.89 | 0.89 | 91 | 1014.4 |
| 20260506204554 | 10 | 167 | 3.2 | 6.4 | 0.00 | 0.89 | 0.89 | 91 | 1014.3 |
| 20260506204451 | 10 | 160 | 3.2 | 6.4 | 0.00 | 0.89 | 0.89 | 91 | 1014.3 |
| 20260506204349 | 10 | 165 | 3.2 | 6.4 | 0.00 | 0.89 | 0.89 | 91 | 1014.4 |
| 20260506204250 | 10 | 158 | 3.2 | 6.4 | 0.00 | 0.89 | 0.89 | 91 | 1014.3 |
| 20260506204148 | 10 | 153 | 3.2 | 6.4 | 0.00 | 0.89 | 0.89 | 91 | 1014.3 |
| 20260506204050 | 10 | 170 | 3.2 | 6.4 | 0.00 | 0.89 | 0.89 | 91 | 1014.3 |
| 20260506204005 | 11 | 330 | 0.0 | 4.8 | 0.08 | 0.89 | 0.89 | 91 | 1012.3 |
| 20260506203949 | 10 | 171 | 3.2 | 6.4 | 0.00 | 0.89 | 0.89 | 91 | 1014.3 |
| 20260506203848 | 10 | 163 | 3.2 | 6.4 | 0.00 | 0.89 | 0.89 | 91 | 1014.3 |
| 20260506203808 | 10 | 165 | 3.2 | 6.4 | 0.00 | 0.89 | 0.89 | 91 | 1014.2 |
| 20260506203727 | 10 | 163 | 3.2 | 6.4 | 0.00 | 0.89 | 0.89 | 91 | 1014.3 |
| 20260506203441 | 10 | 165 | 3.2 | 4.8 | 0.00 | 0.89 | 0.89 | 91 | 1014.2 |
| 20260506203338 | 10 | 163 | 1.6 | 3.2 | 0.00 | 0.89 | 0.89 | 91 | 1014.2 |
| 20260506203247 | 10 | 158 | 1.6 | 3.2 | 0.00 | 0.89 | 0.89 | 91 | 1014.2 |
| 20260506203200 | 10 | 158 | 1.6 | 3.2 | 0.00 | 0.89 | 0.89 | 91 | 1014.3 |
| 20260506203118 | 10 | 149 | 1.6 | 3.2 | 0.00 | 0.89 | 0.89 | 91 | 1014.2 |
| 20260506202851 | 10 | 149 | 1.6 | 4.8 | 0.00 | 0.89 | 0.89 | 91 | 1014.2 |
| 20260506202811 | 10 | 149 | 1.6 | 4.8 | 0.00 | 0.89 | 0.89 | 91 | 1014.2 |
| 20260506202527 | 10 | 153 | 1.6 | 4.8 | 0.00 | 0.89 | 0.89 | 91 | 1014.2 |
| 20260506202452 | 11 | 304 | 3.2 | 4.8 | 0.38 | 0.86 | 0.86 | 91 | 1012.3 |
| 20260506202428 | 10 | 168 | 1.6 | 4.8 | 0.00 | 0.89 | 0.89 | 91 | 1014.2 |
| 20260506202413 | 11 | 291 | 1.6 | 4.8 | 0.38 | 0.86 | 0.86 | 91 | 1012.2 |
| 20260506202322 | 10 | 161 | 1.6 | 6.4 | 0.00 | 0.89 | 0.89 | 91 | 1014.0 |
| 20260506202305 | 11 | 146 | 1.6 | 8.0 | 0.38 | 0.86 | 0.86 | 91 | 1012.2 |
| 20260506202224 | 10 | 153 | 1.6 | 6.4 | 0.00 | 0.89 | 0.89 | 91 | 1014.0 |
| 20260506202123 | 10 | 149 | 3.2 | 6.4 | 0.00 | 0.89 | 0.89 | 91 | 1014.0 |
| 20260506202028 | 10 | 144 | 3.2 | 6.4 | 0.00 | 0.89 | 0.89 | 91 | 1014.0 |
| 20260506201940 | 10 | 158 | 3.2 | 6.4 | 0.00 | 0.89 | 0.89 | 91 | 1014.0 |
| 20260506201904 | 10 | 144 | 3.2 | 6.4 | 0.00 | 0.89 | 0.89 | 91 | 1013.9 |
| 20260506201638 | 10 | 153 | 3.2 | 6.4 | 0.00 | 0.89 | 0.89 | 91 | 1013.8 |
| 20260506201554 | 10 | 153 | 3.2 | 6.4 | 0.00 | 0.89 | 0.89 | 91 | 1013.8 |
| 20260506201509 | 10 | 144 | 3.2 | 6.4 | 0.00 | 0.89 | 0.89 | 91 | 1013.9 |
| 20260506201414 | 10 | 159 | 4.8 | 6.4 | 0.00 | 0.89 | 0.89 | 91 | 1013.9 |
| 20260506201332 | 10 | 169 | 4.8 | 6.4 | 0.00 | 0.89 | 0.89 | 91 | 1013.9 |
| 20260506201047 | 10 | 160 | 1.6 | 3.2 | 0.00 | 0.89 | 0.89 | 91 | 1013.8 |
| 20260506200822 | 10 | 153 | 1.6 | 3.2 | 0.00 | 0.89 | 0.89 | 91 | 1013.8 |
| 20260506200745 | 10 | 115 | 1.6 | 3.2 | 0.00 | 0.89 | 0.89 | 91 | 1013.7 |
| 20260506200701 | 10 | 137 | 1.6 | 3.2 | 0.00 | 0.89 | 0.89 | 91 | 1013.8 |
| 20260506200606 | 10 | 119 | 1.6 | 3.2 | 0.00 | 0.89 | 0.89 | 91 | 1013.7 |
| 20260506200341 | 10 | 108 | 1.6 | 3.2 | 0.00 | 0.89 | 0.89 | 91 | 1013.7 |
| 20260506200108 | 11 | 129 | 1.6 | 3.2 | 0.00 | 0.89 | 0.89 | 91 | 1013.6 |
| 20260506195951 | 11 | 153 | 1.6 | 3.2 | 0.00 | 0.89 | 0.89 | 91 | 1013.7 |
| 20260506195910 | 11 | 178 | 3.2 | 8.0 | 0.61 | 0.86 | 0.86 | 90 | 1012.0 |
| 20260506195853 | 11 | 137 | 1.6 | 3.2 | 0.00 | 0.89 | 0.89 | 91 | 1013.6 |
| 20260506195752 | 11 | 161 | 1.6 | 3.2 | 0.00 | 0.89 | 0.89 | 91 | 1013.6 |
| 20260506195655 | 11 | 153 | 1.6 | 3.2 | 0.00 | 0.89 | 0.89 | 91 | 1013.6 |
| 20260506195641 | 11 | 221 | 1.6 | 14.5 | 0.66 | 0.84 | 0.84 | 90 | 1012.1 |
| 20260506195549 | 11 | 144 | 3.2 | 3.2 | 0.00 | 0.89 | 0.89 | 91 | 1013.6 |
| 20260506195502 | 11 | 153 | 1.6 | 3.2 | 0.00 | 0.89 | 0.89 | 91 | 1013.5 |
| 20260506195421 | 11 | 153 | 1.6 | 6.4 | 0.00 | 0.89 | 0.89 | 91 | 1013.5 |
| 20260506195340 | 11 | 158 | 1.6 | 6.4 | 0.00 | 0.89 | 0.89 | 91 | 1013.5 |
| 20260506195244 | 11 | 170 | 1.6 | 6.4 | 0.00 | 0.89 | 0.89 | 91 | 1013.5 |
| 20260506195016 | 11 | 178 | 0.0 | 6.4 | 0.00 | 0.89 | 0.89 | 91 | 1013.5 |
| 20260506194938 | 11 | 178 | 0.0 | 6.4 | 0.00 | 0.89 | 0.89 | 91 | 1013.5 |
| 20260506194856 | 11 | 165 | 1.6 | 6.4 | 0.00 | 0.89 | 0.89 | 91 | 1013.4 |
| 20260506194434 | 11 | 221 | 1.6 | 14.5 | 0.71 | 0.84 | 0.84 | 90 | 1012.0 |
| 20260506194418 | 11 | 163 | 3.2 | 6.4 | 0.00 | 0.89 | 0.89 | 91 | 1013.4 |
| 20260506194316 | 11 | 171 | 3.2 | 6.4 | 0.00 | 0.89 | 0.89 | 91 | 1013.3 |
| 20260506194219 | 11 | 161 | 4.8 | 6.4 | 0.00 | 0.89 | 0.89 | 91 | 1013.3 |
| 20260506194200 | 11 | 221 | 6.4 | 14.5 | 0.71 | 0.84 | 0.84 | 90 | 1011.9 |
| 20260506194124 | 11 | 167 | 3.2 | 6.4 | 0.00 | 0.89 | 0.89 | 91 | 1013.3 |
| 20260506194040 | 11 | 168 | 3.2 | 6.4 | 0.00 | 0.89 | 0.89 | 91 | 1013.2 |
| 20260506193958 | 11 | 165 | 3.2 | 6.4 | 0.00 | 0.89 | 0.89 | 91 | 1013.3 |
| 20260506193745 | 11 | 221 | 12.9 | 22.5 | 0.69 | 0.81 | 0.84 | 90 | 1011.9 |
| 20260506193706 | 11 | 163 | 3.2 | 6.4 | 0.00 | 0.89 | 0.89 | 91 | 1013.2 |
| 20260506193604 | 11 | 165 | 3.2 | 6.4 | 0.00 | 0.89 | 0.89 | 91 | 1013.2 |
| 20260506193513 | 11 | 163 | 3.2 | 6.4 | 0.00 | 0.89 | 0.89 | 91 | 1013.2 |
| 20260506193426 | 11 | 163 | 3.2 | 6.4 | 0.00 | 0.89 | 0.89 | 91 | 1013.2 |
| 20260506193347 | 11 | 161 | 3.2 | 6.4 | 0.00 | 0.89 | 0.89 | 91 | 1013.1 |
| 20260506193124 | 11 | 171 | 1.6 | 6.4 | 0.00 | 0.89 | 0.89 | 91 | 1013.2 |
| 20260506193040 | 11 | 161 | 1.6 | 6.4 | 0.00 | 0.89 | 0.89 | 91 | 1013.1 |
| 20260506192956 | 11 | 168 | 1.6 | 6.4 | 0.00 | 0.89 | 0.89 | 91 | 1013.1 |
| 20260506192917 | 11 | 178 | 3.2 | 6.4 | 0.00 | 0.89 | 0.89 | 91 | 1013.1 |
| 20260506192833 | 11 | 161 | 3.2 | 6.4 | 0.00 | 0.89 | 0.89 | 91 | 1013.1 |
| 20260506192611 | 11 | 168 | 3.2 | 6.4 | 0.00 | 0.89 | 0.89 | 91 | 1013.0 |
| 20260506192526 | 11 | 161 | 3.2 | 6.4 | 0.00 | 0.89 | 0.89 | 91 | 1013.1 |
| 20260506192445 | 11 | 173 | 3.2 | 6.4 | 0.00 | 0.89 | 0.89 | 91 | 1013.0 |
| 20260506192402 | 11 | 163 | 1.6 | 6.4 | 0.00 | 0.89 | 0.89 | 91 | 1013.1 |
| 20260506191811 | 11 | 193 | 1.6 | 3.2 | 0.00 | 0.89 | 0.89 | 91 | 1013.0 |
| 20260506191528 | 11 | 178 | 1.6 | 3.2 | 0.00 | 0.89 | 0.89 | 91 | 1013.0 |
| 20260506191422 | 11 | 171 | 1.6 | 3.2 | 0.00 | 0.89 | 0.89 | 91 | 1012.9 |
| 20260506191348 | 11 | 137 | 11.3 | 19.3 | 0.41 | 0.53 | 0.56 | 90 | 1011.9 |
| 20260506191327 | 11 | 205 | 0.0 | 1.6 | 0.00 | 0.89 | 0.89 | 92 | 1012.9 |
| 20260506191221 | 11 | 196 | 0.0 | 1.6 | 0.00 | 0.89 | 0.89 | 92 | 1012.9 |
| 20260506191138 | 11 | 178 | 0.0 | 1.6 | 0.00 | 0.89 | 0.89 | 92 | 1012.9 |
| 20260506191105 | 11 | 178 | 1.6 | 1.6 | 0.00 | 0.89 | 0.89 | 92 | 1012.9 |
| 20260506191023 | 11 | 178 | 0.0 | 1.6 | 0.00 | 0.89 | 0.89 | 92 | 1012.9 |
| 20260506190822 | 11 | 153 | 0.0 | 1.6 | 0.00 | 0.89 | 0.89 | 92 | 1012.9 |
| 20260506190735 | 11 | 219 | 9.7 | 19.3 | 0.41 | 0.51 | 0.51 | 90 | 1011.7 |
| 20260506190720 | 11 | 178 | 0.0 | 1.6 | 0.00 | 0.89 | 0.89 | 92 | 1012.9 |
| 20260506190621 | 11 | 153 | 0.0 | 1.6 | 0.00 | 0.89 | 0.89 | 92 | 1012.9 |
| 20260506190517 | 11 | 26 | 0.0 | 1.6 | 0.00 | 0.89 | 0.89 | 92 | 1012.8 |
| 20260506190417 | 11 | 334 | 0.0 | 3.2 | 0.00 | 0.89 | 0.89 | 92 | 1012.9 |
| 20260506190308 | 11 | 119 | 0.0 | 3.2 | 0.00 | 0.89 | 0.89 | 92 | 1012.8 |
| 20260506190210 | 11 | 137 | 0.0 | 3.2 | 0.00 | 0.89 | 0.89 | 92 | 1012.7 |
| 20260506190150 | 12 | 167 | 6.4 | 24.1 | 0.33 | 0.43 | 0.43 | 89 | 1011.3 |
| 20260506190112 | 11 | 146 | 1.6 | 3.2 | 0.00 | 0.89 | 0.89 | 92 | 1012.8 |
| 20260506190018 | 12 | 185 | 9.7 | 24.1 | 0.33 | 0.41 | 0.41 | 89 | 1011.3 |
| 20260506190000 | 11 | 196 | 0.0 | 3.2 | 0.00 | 0.89 | 0.89 | 92 | 1012.7 |
| 20260506185858 | 11 | 165 | 0.0 | 3.2 | 0.00 | 0.89 | 0.89 | 92 | 1012.8 |
| 20260506185820 | 12 | 178 | 12.9 | 24.1 | 0.30 | 0.38 | 0.38 | 88 | 1011.1 |
| 20260506185758 | 11 | 193 | 0.0 | 3.2 | 0.00 | 0.89 | 0.89 | 92 | 1012.7 |
| 20260506185658 | 11 | 146 | 0.0 | 3.2 | 0.00 | 0.89 | 0.89 | 92 | 1012.7 |
| 20260506185551 | 11 | 178 | 1.6 | 3.2 | 0.00 | 0.89 | 0.89 | 92 | 1012.7 |
| 20260506185522 | 12 | 178 | 14.5 | 29.0 | 0.13 | 0.23 | 0.20 | 87 | 1011.1 |
| 20260506185451 | 11 | 178 | 1.6 | 3.2 | 0.00 | 0.89 | 0.89 | 92 | 1012.7 |
| 20260506185355 | 11 | 137 | 1.6 | 3.2 | 0.00 | 0.89 | 0.89 | 92 | 1012.7 |
| 20260506185315 | 11 | 161 | 1.6 | 8.0 | 0.00 | 0.89 | 0.89 | 92 | 1012.8 |
| 20260506185231 | 11 | 178 | 1.6 | 8.0 | 0.00 | 0.89 | 0.89 | 92 | 1012.7 |
| 20260506185038 | 12 | 175 | 12.9 | 29.0 | 0.05 | 0.15 | 0.15 | 86 | 1011.1 |
| 20260506184955 | 11 | 153 | 1.6 | 8.0 | 0.00 | 0.89 | 0.89 | 92 | 1012.7 |
| 20260506184900 | 11 | 170 | 1.6 | 8.0 | 0.00 | 0.89 | 0.89 | 92 | 1012.7 |
| 20260506184819 | 11 | 193 | 1.6 | 8.0 | 0.03 | 0.89 | 0.89 | 92 | 1012.8 |
| 20260506184735 | 11 | 232 | 1.6 | 8.0 | 0.03 | 0.89 | 0.89 | 92 | 1012.8 |
| 20260506184659 | 11 | 178 | 3.2 | 8.0 | 0.03 | 0.89 | 0.89 | 92 | 1012.7 |
| 20260506184431 | 11 | 175 | 1.6 | 6.4 | 0.03 | 0.89 | 0.89 | 92 | 1012.7 |
| 20260506184244 | 11 | 178 | 1.6 | 3.2 | 0.03 | 0.89 | 0.89 | 92 | 1012.7 |
| 20260506184203 | 11 | 161 | 1.6 | 3.2 | 0.03 | 0.89 | 0.89 | 92 | 1012.6 |
| 20260506184118 | 11 | 158 | 1.6 | 3.2 | 0.03 | 0.89 | 0.89 | 92 | 1012.6 |
| 20260506184033 | 11 | 190 | 1.6 | 3.2 | 0.03 | 0.89 | 0.89 | 92 | 1012.6 |
| 20260506183951 | 11 | 153 | 1.6 | 4.8 | 0.03 | 0.89 | 0.89 | 92 | 1012.6 |
| 20260506183328 | 12 | 167 | 14.5 | 29.0 | 0.05 | 0.15 | 0.15 | 85 | 1011.1 |
| 20260506183310 | 11 | 153 | 1.6 | 4.8 | 0.03 | 0.89 | 0.89 | 92 | 1012.5 |
| 20260506183233 | 11 | 178 | 1.6 | 4.8 | 0.03 | 0.89 | 0.89 | 92 | 1012.6 |
| 20260506183148 | 11 | 200 | 1.6 | 4.8 | 0.03 | 0.89 | 0.89 | 92 | 1012.6 |
| 20260506182905 | 11 | 170 | 3.2 | 4.8 | 0.03 | 0.89 | 0.89 | 92 | 1012.6 |
| 20260506182805 | 11 | 178 | 1.6 | 4.8 | 0.03 | 0.89 | 0.89 | 92 | 1012.6 |
| 20260506182725 | 11 | 137 | 1.6 | 3.2 | 0.03 | 0.89 | 0.89 | 92 | 1012.5 |
| 20260506182643 | 11 | 153 | 0.0 | 3.2 | 0.03 | 0.89 | 0.89 | 92 | 1012.6 |
| 20260506182400 | 11 | 196 | 1.6 | 3.2 | 0.03 | 0.89 | 0.89 | 92 | 1012.5 |
| 20260506182300 | 11 | 137 | 1.6 | 3.2 | 0.03 | 0.89 | 0.89 | 92 | 1012.5 |
| 20260506182205 | 11 | 196 | 1.6 | 3.2 | 0.03 | 0.89 | 0.89 | 92 | 1012.5 |
| 20260506182120 | 11 | 178 | 1.6 | 3.2 | 0.03 | 0.89 | 0.89 | 92 | 1012.5 |
| 20260506182041 | 11 | 212 | 1.6 | 6.4 | 0.03 | 0.89 | 0.89 | 92 | 1012.5 |
| 20260506181753 | 11 | 221 | 1.6 | 6.4 | 0.03 | 0.89 | 0.89 | 92 | 1012.5 |
| 20260506181651 | 11 | 205 | 0.0 | 6.4 | 0.03 | 0.89 | 0.89 | 92 | 1012.5 |
| 20260506181551 | 11 | 193 | 0.0 | 6.4 | 0.03 | 0.89 | 0.89 | 92 | 1012.5 |
| 20260506181451 | 11 | 153 | 0.0 | 6.4 | 0.03 | 0.89 | 0.89 | 92 | 1012.4 |
| 20260506181420 | 15 | 317 | 12.9 | 19.3 | 0.00 | 0.23 | 0.08 | 71 | 1010.7 |
| 20260506181347 | 11 | 221 | 1.6 | 6.4 | 0.03 | 0.89 | 0.89 | 92 | 1012.4 |
| 20260506181303 | 11 | 178 | 1.6 | 6.4 | 0.03 | 0.89 | 0.89 | 92 | 1012.5 |
| 20260506181215 | 11 | 265 | 1.6 | 6.4 | 0.03 | 0.89 | 0.89 | 92 | 1012.5 |
| 20260506181134 | 11 | 168 | 1.6 | 6.4 | 0.05 | 0.89 | 0.89 | 92 | 1012.4 |
| 20260506180940 | 11 | 93 | 1.6 | 8.0 | 0.05 | 0.89 | 0.89 | 92 | 1012.4 |
| 20260506180836 | 11 | 153 | 1.6 | 8.0 | 0.05 | 0.89 | 0.89 | 92 | 1012.4 |
| 20260506180735 | 11 | 153 | 1.6 | 8.0 | 0.05 | 0.89 | 0.89 | 92 | 1012.5 |
| 20260506180634 | 11 | 153 | 1.6 | 8.0 | 0.05 | 0.89 | 0.89 | 92 | 1012.4 |
| 20260506180533 | 11 | 144 | 1.6 | 8.0 | 0.05 | 0.89 | 0.89 | 92 | 1012.4 |
| 20260506180432 | 11 | 221 | 1.6 | 8.0 | 0.05 | 0.89 | 0.89 | 92 | 1012.3 |
| 20260506180327 | 11 | 295 | 1.6 | 8.0 | 0.05 | 0.89 | 0.89 | 92 | 1012.3 |
| 20260506180228 | 11 | 319 | 3.2 | 8.0 | 0.05 | 0.89 | 0.89 | 92 | 1012.4 |
| 20260506180214 | 15 | 325 | 11.3 | 22.5 | 0.00 | 0.36 | 0.08 | 69 | 1010.6 |
| 20260506180128 | 11 | 163 | 1.6 | 8.0 | 0.05 | 0.89 | 0.89 | 91 | 1012.4 |
| 20260506180029 | 11 | 280 | 0.0 | 3.2 | 0.05 | 0.89 | 0.89 | 91 | 1012.4 |
| 20260506180013 | 15 | 334 | 9.7 | 25.7 | 0.00 | 0.38 | 0.08 | 70 | 1010.5 |
| 20260506175927 | 11 | 126 | 1.6 | 3.2 | 0.05 | 0.89 | 0.89 | 91 | 1012.3 |
| 20260506175844 | 11 | 137 | 1.6 | 4.8 | 0.08 | 0.89 | 0.89 | 91 | 1012.3 |
| 20260506175805 | 11 | 146 | 1.6 | 4.8 | 0.08 | 0.89 | 0.89 | 91 | 1012.3 |
| 20260506175604 | 15 | 337 | 16.1 | 25.7 | 0.00 | 0.38 | 0.08 | 68 | 1010.6 |
| 20260506175520 | 11 | 178 | 0.0 | 4.8 | 0.15 | 0.89 | 0.89 | 91 | 1012.3 |
| 20260506175502 | 15 | 24 | 11.3 | 25.7 | 0.00 | 0.41 | 0.08 | 68 | 1010.5 |
| 20260506175421 | 11 | 265 | 0.0 | 4.8 | 0.20 | 0.89 | 0.89 | 91 | 1012.3 |
| 20260506175407 | 15 | 331 | 12.9 | 25.7 | 0.00 | 0.41 | 0.08 | 69 | 1010.5 |
| 20260506175341 | 15 | 340 | 17.7 | 25.7 | 0.00 | 0.41 | 0.08 | 68 | 1010.5 |
| 20260506175319 | 11 | 137 | 1.6 | 4.8 | 0.28 | 0.89 | 0.89 | 91 | 1012.3 |
| 20260506175239 | 16 | 344 | 17.7 | 25.7 | 0.00 | 0.41 | 0.08 | 66 | 1010.5 |
| 20260506175218 | 11 | 137 | 1.6 | 4.8 | 0.33 | 0.89 | 0.89 | 91 | 1012.3 |
| 20260506175114 | 11 | 41 | 1.6 | 4.8 | 0.33 | 0.89 | 0.89 | 91 | 1012.3 |
| 20260506175016 | 11 | 137 | 1.6 | 4.8 | 0.33 | 0.89 | 0.89 | 91 | 1012.3 |
| 20260506174930 | 11 | 144 | 1.6 | 4.8 | 0.36 | 0.89 | 0.89 | 91 | 1012.3 |
| 20260506174847 | 11 | 161 | 1.6 | 4.8 | 0.36 | 0.89 | 0.89 | 91 | 1012.3 |
| 20260506174807 | 11 | 157 | 1.6 | 4.8 | 0.36 | 0.86 | 0.86 | 91 | 1012.3 |
| 20260506174723 | 11 | 265 | 1.6 | 4.8 | 0.36 | 0.86 | 0.86 | 91 | 1012.2 |
| 20260506174640 | 11 | 319 | 1.6 | 4.8 | 0.36 | 0.86 | 0.86 | 91 | 1012.3 |
| 20260506174552 | 11 | 316 | 3.2 | 4.8 | 0.36 | 0.86 | 0.86 | 91 | 1012.3 |
| 20260506174142 | 11 | 250 | 1.6 | 6.4 | 0.38 | 0.86 | 0.86 | 91 | 1012.3 |
| 20260506174102 | 11 | 212 | 1.6 | 6.4 | 0.38 | 0.86 | 0.86 | 91 | 1012.2 |
| 20260506173834 | 11 | 273 | 1.6 | 8.0 | 0.38 | 0.86 | 0.86 | 91 | 1012.3 |
| 20260506173752 | 11 | 108 | 1.6 | 8.0 | 0.38 | 0.86 | 0.86 | 91 | 1012.2 |
| 20260506173556 | 11 | 126 | 1.6 | 8.0 | 0.38 | 0.86 | 0.86 | 91 | 1012.2 |
| 20260506173455 | 11 | 325 | 1.6 | 8.0 | 0.38 | 0.86 | 0.86 | 91 | 1012.2 |
| 20260506173353 | 11 | 178 | 3.2 | 8.0 | 0.41 | 0.86 | 0.86 | 91 | 1012.2 |
| 20260506173309 | 11 | 319 | 3.2 | 8.0 | 0.41 | 0.86 | 0.86 | 91 | 1012.3 |
| 20260506173229 | 11 | 170 | 3.2 | 8.0 | 0.41 | 0.86 | 0.86 | 91 | 1012.2 |
| 20260506173146 | 11 | 212 | 3.2 | 11.3 | 0.43 | 0.86 | 0.86 | 91 | 1012.2 |
| 20260506173054 | 11 | 161 | 3.2 | 11.3 | 0.43 | 0.86 | 0.86 | 91 | 1012.1 |
| 20260506172849 | 11 | 277 | 3.2 | 11.3 | 0.43 | 0.86 | 0.86 | 91 | 1012.2 |
| 20260506172746 | 11 | 178 | 1.6 | 11.3 | 0.46 | 0.86 | 0.86 | 91 | 1012.1 |
| 20260506172733 | 16 | 321 | 4.8 | 16.1 | 0.00 | 0.46 | 0.08 | 63 | 1010.4 |
| 20260506172646 | 11 | 165 | 1.6 | 11.3 | 0.46 | 0.86 | 0.86 | 91 | 1012.1 |
| 20260506172546 | 11 | 208 | 1.6 | 11.3 | 0.46 | 0.86 | 0.86 | 90 | 1012.2 |
| 20260506172442 | 11 | 115 | 3.2 | 11.3 | 0.46 | 0.86 | 0.86 | 90 | 1012.1 |
| 20260506172340 | 11 | 163 | 4.8 | 11.3 | 0.46 | 0.86 | 0.86 | 91 | 1012.1 |
| 20260506172239 | 11 | 302 | 3.2 | 11.3 | 0.46 | 0.86 | 0.86 | 91 | 1012.1 |
| 20260506172137 | 11 | 173 | 3.2 | 11.3 | 0.48 | 0.86 | 0.86 | 91 | 1012.1 |
| 20260506172044 | 11 | 304 | 3.2 | 11.3 | 0.51 | 0.86 | 0.86 | 90 | 1012.0 |
| 20260506172028 | 16 | 298 | 9.7 | 17.7 | 0.00 | 0.46 | 0.08 | 62 | 1010.5 |
| 20260506172004 | 16 | 324 | 8.0 | 17.7 | 0.00 | 0.46 | 0.08 | 63 | 1010.5 |
| 20260506171934 | 11 | 41 | 3.2 | 11.3 | 0.53 | 0.86 | 0.86 | 90 | 1012.1 |
| 20260506171835 | 11 | 9 | 1.6 | 11.3 | 0.58 | 0.86 | 0.86 | 90 | 1012.0 |
| 20260506171752 | 11 | 232 | 4.8 | 11.3 | 0.61 | 0.86 | 0.86 | 90 | 1012.1 |
| 20260506171709 | 11 | 170 | 4.8 | 11.3 | 0.61 | 0.86 | 0.86 | 90 | 1012.1 |
| 20260506171516 | 16 | 323 | 6.4 | 17.7 | 0.00 | 0.46 | 0.08 | 62 | 1010.6 |
| 20260506171428 | 11 | 171 | 3.2 | 8.0 | 0.64 | 0.86 | 0.86 | 90 | 1012.0 |
| 20260506171327 | 11 | 219 | 3.2 | 8.0 | 0.66 | 0.86 | 0.86 | 90 | 1012.0 |
| 20260506171244 | 11 | 221 | 1.6 | 3.2 | 0.66 | 0.86 | 0.86 | 90 | 1012.1 |
| 20260506171205 | 11 | 221 | 1.6 | 3.2 | 0.69 | 0.86 | 0.86 | 90 | 1012.0 |
| 20260506170942 | 11 | 221 | 1.6 | 14.5 | 0.71 | 0.84 | 0.84 | 90 | 1012.1 |
| 20260506170900 | 11 | 221 | 1.6 | 14.5 | 0.71 | 0.84 | 0.84 | 90 | 1012.0 |
| 20260506170824 | 11 | 221 | 1.6 | 14.5 | 0.71 | 0.84 | 0.84 | 90 | 1012.1 |
| 20260506170600 | 11 | 221 | 1.6 | 14.5 | 0.71 | 0.84 | 0.84 | 90 | 1012.0 |
| 20260506170518 | 11 | 221 | 1.6 | 14.5 | 0.71 | 0.84 | 0.84 | 90 | 1011.9 |
| 20260506170108 | 11 | 177 | 12.9 | 22.5 | 0.69 | 0.81 | 0.81 | 90 | 1011.9 |
| 20260506165956 | 11 | 177 | 12.9 | 22.5 | 0.69 | 0.81 | 0.81 | 90 | 1011.9 |
| 20260506165854 | 11 | 177 | 12.9 | 22.5 | 0.69 | 0.81 | 0.81 | 90 | 1011.9 |
| 20260506165818 | 16 | 333 | 14.5 | 20.9 | 0.00 | 0.46 | 0.08 | 60 | 1010.7 |
| 20260506165752 | 11 | 177 | 12.9 | 22.5 | 0.66 | 0.79 | 0.81 | 90 | 1011.8 |
| 20260506165733 | 16 | 294 | 12.9 | 20.9 | 0.00 | 0.46 | 0.08 | 62 | 1010.8 |
| 20260506165712 | 16 | 310 | 8.0 | 19.3 | 0.00 | 0.46 | 0.08 | 63 | 1010.8 |
| 20260506165653 | 11 | 177 | 12.9 | 22.5 | 0.66 | 0.79 | 0.79 | 90 | 1011.8 |
| 20260506165554 | 11 | 177 | 12.9 | 22.5 | 0.61 | 0.74 | 0.79 | 90 | 1011.9 |
| 20260506165511 | 11 | 177 | 11.3 | 22.5 | 0.53 | 0.69 | 0.71 | 90 | 1011.9 |
| 20260506165425 | 11 | 177 | 9.7 | 22.5 | 0.46 | 0.61 | 0.64 | 90 | 1011.9 |
| 20260506165345 | 11 | 171 | 8.0 | 19.3 | 0.43 | 0.56 | 0.58 | 90 | 1011.9 |
| 20260506165125 | 11 | 162 | 11.3 | 19.3 | 0.43 | 0.53 | 0.53 | 90 | 1011.8 |
| 20260506164846 | 11 | 163 | 11.3 | 19.3 | 0.41 | 0.51 | 0.51 | 90 | 1011.8 |
| 20260506164816 | 16 | 232 | 4.8 | 14.5 | 0.00 | 0.46 | 0.08 | 65 | 1010.8 |
| 20260506164747 | 11 | 163 | 12.9 | 19.3 | 0.41 | 0.51 | 0.51 | 90 | 1011.8 |
| 20260506164735 | 16 | 314 | 6.4 | 17.7 | 0.00 | 0.46 | 0.08 | 62 | 1010.7 |
| 20260506164705 | 11 | 164 | 9.7 | 19.3 | 0.38 | 0.51 | 0.51 | 90 | 1011.8 |
| 20260506164624 | 11 | 163 | 8.0 | 19.3 | 0.41 | 0.51 | 0.51 | 90 | 1011.7 |
| 20260506164343 | 11 | 163 | 9.7 | 19.3 | 0.43 | 0.51 | 0.51 | 90 | 1011.6 |
| 20260506164240 | 12 | 165 | 6.4 | 19.3 | 0.41 | 0.48 | 0.48 | 90 | 1011.6 |
| 20260506164141 | 12 | 175 | 6.4 | 16.1 | 0.41 | 0.48 | 0.48 | 90 | 1011.7 |
| 20260506164052 | 12 | 161 | 8.0 | 16.1 | 0.41 | 0.48 | 0.48 | 90 | 1011.8 |
| 20260506164013 | 12 | 148 | 8.0 | 16.1 | 0.41 | 0.48 | 0.48 | 90 | 1011.7 |
| 20260506163927 | 12 | 232 | 6.4 | 16.1 | 0.41 | 0.48 | 0.48 | 90 | 1011.6 |
| 20260506163734 | 12 | 167 | 6.4 | 16.1 | 0.41 | 0.48 | 0.48 | 90 | 1011.6 |
| 20260506163632 | 12 | 164 | 6.4 | 16.1 | 0.41 | 0.48 | 0.48 | 90 | 1011.6 |
| 20260506163613 | 16 | 338 | 8.0 | 20.9 | 0.00 | 0.46 | 0.08 | 62 | 1010.9 |
| 20260506163529 | 12 | 164 | 8.0 | 16.1 | 0.41 | 0.48 | 0.48 | 90 | 1011.5 |
| 20260506163447 | 12 | 171 | 11.3 | 19.3 | 0.38 | 0.46 | 0.48 | 90 | 1011.5 |
| 20260506163404 | 12 | 165 | 11.3 | 19.3 | 0.38 | 0.46 | 0.46 | 89 | 1011.3 |
| 20260506163327 | 12 | 159 | 9.7 | 19.3 | 0.38 | 0.46 | 0.46 | 89 | 1011.2 |
| 20260506163245 | 12 | 163 | 9.7 | 19.3 | 0.38 | 0.46 | 0.46 | 89 | 1011.2 |
| 20260506163201 | 12 | 147 | 8.0 | 22.5 | 0.36 | 0.43 | 0.43 | 89 | 1011.3 |
| 20260506162935 | 12 | 178 | 6.4 | 24.1 | 0.33 | 0.41 | 0.41 | 89 | 1011.2 |
| 20260506162853 | 12 | 183 | 9.7 | 24.1 | 0.33 | 0.41 | 0.41 | 89 | 1011.3 |
| 20260506162815 | 12 | 178 | 9.7 | 24.1 | 0.33 | 0.41 | 0.41 | 89 | 1011.2 |
| 20260506162551 | 12 | 171 | 11.3 | 24.1 | 0.33 | 0.41 | 0.41 | 88 | 1011.1 |
| 20260506162506 | 12 | 171 | 11.3 | 24.1 | 0.33 | 0.41 | 0.41 | 88 | 1011.2 |
| 20260506162424 | 12 | 177 | 12.9 | 24.1 | 0.30 | 0.38 | 0.41 | 88 | 1011.2 |
| 20260506162132 | 12 | 183 | 12.9 | 24.1 | 0.28 | 0.36 | 0.36 | 88 | 1011.2 |
| 20260506162024 | 12 | 173 | 8.0 | 22.5 | 0.23 | 0.33 | 0.33 | 88 | 1011.1 |
| 20260506161940 | 12 | 177 | 8.0 | 22.5 | 0.20 | 0.28 | 0.28 | 88 | 1011.2 |
| 20260506161859 | 12 | 178 | 6.4 | 22.5 | 0.18 | 0.25 | 0.25 | 87 | 1011.2 |
| 20260506161816 | 12 | 178 | 8.0 | 22.5 | 0.15 | 0.23 | 0.25 | 87 | 1011.1 |
| 20260506161736 | 12 | 175 | 12.9 | 22.5 | 0.15 | 0.23 | 0.23 | 87 | 1011.2 |
| 20260506161654 | 12 | 185 | 14.5 | 24.1 | 0.13 | 0.23 | 0.23 | 87 | 1011.2 |
| 20260506161402 | 12 | 175 | 14.5 | 29.0 | 0.13 | 0.23 | 0.20 | 86 | 1011.1 |
| 20260506161317 | 12 | 178 | 12.9 | 29.0 | 0.10 | 0.20 | 0.18 | 86 | 1011.1 |
| 20260506160840 | 12 | 182 | 11.3 | 29.0 | 0.05 | 0.15 | 0.15 | 86 | 1011.1 |
| 20260506160548 | 13 | 208 | 17.7 | 29.0 | 0.05 | 0.18 | 0.15 | 85 | 1011.1 |
| 20260506160507 | 13 | 187 | 17.7 | 29.0 | 0.05 | 0.18 | 0.15 | 85 | 1011.0 |
| 20260506160419 | 13 | 173 | 12.9 | 29.0 | 0.05 | 0.18 | 0.15 | 85 | 1011.0 |
| 20260506160339 | 13 | 195 | 9.7 | 20.9 | 0.05 | 0.18 | 0.15 | 85 | 1011.0 |
| 20260506160258 | 13 | 163 | 9.7 | 20.9 | 0.05 | 0.18 | 0.15 | 85 | 1011.1 |
| 20260506160200 | 13 | 189 | 9.7 | 20.9 | 0.05 | 0.18 | 0.15 | 85 | 1011.2 |
| 20260506160052 | 13 | 183 | 6.4 | 16.1 | 0.05 | 0.18 | 0.15 | 85 | 1011.1 |
| 20260506155839 | 13 | 177 | 4.8 | 14.5 | 0.05 | 0.18 | 0.15 | 85 | 1011.1 |
| 20260506155759 | 13 | 168 | 4.8 | 8.0 | 0.05 | 0.18 | 0.15 | 85 | 1011.1 |
| 20260506155650 | 13 | 221 | 3.2 | 8.0 | 0.05 | 0.18 | 0.15 | 84 | 1011.1 |
| 20260506155534 | 13 | 193 | 3.2 | 16.1 | 0.05 | 0.18 | 0.15 | 83 | 1011.0 |
| 20260506155434 | 13 | 212 | 3.2 | 20.9 | 0.05 | 0.20 | 0.15 | 83 | 1011.0 |
| 20260506155407 | 17 | 332 | 12.9 | 19.3 | 0.00 | 0.46 | 0.08 | 60 | 1010.8 |
| 20260506155331 | 13 | 212 | 3.2 | 24.1 | 0.05 | 0.20 | 0.15 | 82 | 1011.0 |
| 20260506155230 | 14 | 208 | 3.2 | 24.1 | 0.05 | 0.20 | 0.15 | 81 | 1010.9 |
| 20260506155155 | 17 | 212 | 3.2 | 17.7 | 0.00 | 0.46 | 0.08 | 61 | 1010.9 |
| 20260506155129 | 14 | 303 | 3.2 | 24.1 | 0.05 | 0.20 | 0.15 | 79 | 1010.9 |
| 20260506155028 | 14 | 295 | 3.2 | 24.1 | 0.05 | 0.20 | 0.13 | 79 | 1010.9 |
| 20260506154926 | 14 | 255 | 3.2 | 24.1 | 0.05 | 0.20 | 0.13 | 77 | 1010.8 |
| 20260506154826 | 14 | 234 | 4.8 | 24.1 | 0.05 | 0.20 | 0.13 | 76 | 1010.8 |
| 20260506154724 | 15 | 295 | 9.7 | 24.1 | 0.05 | 0.23 | 0.13 | 75 | 1010.8 |
| 20260506154631 | 15 | 329 | 14.5 | 24.1 | 0.05 | 0.23 | 0.13 | 74 | 1010.8 |
| 20260506154549 | 15 | 310 | 14.5 | 24.1 | 0.03 | 0.23 | 0.10 | 73 | 1010.9 |
| 20260506154508 | 15 | 298 | 12.9 | 24.1 | 0.00 | 0.20 | 0.08 | 73 | 1010.8 |
| 20260506154420 | 15 | 325 | 14.5 | 19.3 | 0.00 | 0.23 | 0.08 | 71 | 1010.8 |
| 20260506154157 | 15 | 315 | 9.7 | 14.5 | 0.00 | 0.23 | 0.08 | 70 | 1010.8 |
| 20260506153926 | 15 | 312 | 8.0 | 14.5 | 0.00 | 0.25 | 0.08 | 70 | 1010.6 |
| 20260506153840 | 15 | 329 | 8.0 | 16.1 | 0.00 | 0.25 | 0.08 | 69 | 1010.6 |
| 20260506153759 | 15 | 341 | 6.4 | 16.1 | 0.00 | 0.28 | 0.08 | 69 | 1010.6 |
| 20260506153610 | 15 | 16 | 4.8 | 16.1 | 0.00 | 0.28 | 0.08 | 69 | 1010.7 |
| 20260506153521 | 15 | 316 | 4.8 | 16.1 | 0.00 | 0.30 | 0.08 | 70 | 1010.6 |
| 20260506153440 | 15 | 347 | 6.4 | 16.1 | 0.00 | 0.30 | 0.08 | 71 | 1010.6 |
| 20260506153353 | 15 | 344 | 6.4 | 16.1 | 0.00 | 0.30 | 0.08 | 70 | 1010.6 |
| 20260506153314 | 15 | 319 | 6.4 | 16.1 | 0.00 | 0.33 | 0.08 | 70 | 1010.6 |
| 20260506153230 | 15 | 319 | 9.7 | 16.1 | 0.00 | 0.33 | 0.08 | 70 | 1010.6 |
| 20260506153147 | 15 | 325 | 11.3 | 16.1 | 0.00 | 0.33 | 0.08 | 68 | 1010.6 |
| 20260506153106 | 15 | 315 | 9.7 | 16.1 | 0.00 | 0.33 | 0.08 | 68 | 1010.6 |
| 20260506153020 | 15 | 342 | 9.7 | 16.1 | 0.00 | 0.33 | 0.08 | 69 | 1010.6 |
| 20260506152938 | 15 | 347 | 11.3 | 20.9 | 0.00 | 0.33 | 0.08 | 69 | 1010.6 |
| 20260506152855 | 15 | 332 | 11.3 | 20.9 | 0.00 | 0.33 | 0.08 | 69 | 1010.6 |
| 20260506152813 | 15 | 11 | 9.7 | 20.9 | 0.00 | 0.33 | 0.08 | 69 | 1010.5 |
| 20260506152733 | 15 | 319 | 11.3 | 20.9 | 0.00 | 0.36 | 0.08 | 69 | 1010.6 |
| 20260506152507 | 15 | 319 | 9.7 | 25.7 | 0.00 | 0.38 | 0.08 | 69 | 1010.6 |
| 20260506152240 | 15 | 13 | 14.5 | 25.7 | 0.00 | 0.38 | 0.08 | 68 | 1010.6 |
| 20260506152013 | 15 | 304 | 12.9 | 25.7 | 0.00 | 0.41 | 0.08 | 68 | 1010.6 |